GFSGL_sfc_thetae_000.txt.gz
Theta_e
291 292 291 292 292 290 288 288 289 291 291 290 291 291 291 292 292 291 291 290 289 289 289 288 286 287 286 286 286 286 286 286 284 286 287 289 290 292 292 294 295 295 297
292 291 291 289 287 286 287 288 289 289 290 290 290 291 291 289 289 289 288 287 286 285 285 285 285 286 285 285 285 284 285 285 284 283 285 286 287 290 291 291 293 295 294
292 290 287 285 285 285 286 288 289 290 290 290 290 290 290 289 288 286 285 285 284 284 283 283 283 283 282 282 282 282 282 284 283 283 282 285 286 287 288 289 290 291 292
291 289 286 286 285 286 289 290 290 291 291 291 291 289 288 286 285 285 284 282 281 282 282 281 281 280 280 280 281 281 281 281 281 281 282 282 283 285 286 284 285 287 288
291 291 289 291 292 290 290 291 291 291 292 292 290 286 285 284 284 283 282 281 281 280 281 281 281 282 284 283 282 281 281 280 281 281 280 281 281 280 281 283 283 284 285
291 290 293 294 293 292 292 291 291 291 290 290 285 282 282 283 286 285 285 281 281 280 279 280 280 282 282 283 283 284 283 280 279 279 279 278 279 279 280 280 280 280 279
290 288 288 289 290 290 290 290 287 284 283 281 281 281 281 282 285 285 285 281 280 280 279 279 280 281 282 281 282 283 283 283 282 282 280 280 280 281 281 280 280 280 280
285 286 288 287 285 284 283 282 282 281 280 279 280 281 280 280 283 283 283 279 278 278 278 279 279 279 280 281 281 280 281 281 281 281 281 281 282 283 282 282 281 282 282
286 286 287 284 282 282 281 279 279 279 279 279 280 279 278 278 281 281 281 276 276 276 278 279 279 279 281 282 280 280 280 281 283 284 285 284 284 285 284 282 280 279 278
285 284 283 282 281 279 278 278 278 278 279 279 278 278 278 275 279 281 280 277 275 277 277 279 280 280 282 282 281 280 279 280 282 282 282 283 285 285 285 284 283 280 279
283 282 282 281 280 278 278 277 277 277 277 272 271 273 275 276 276 280 280 279 278 277 278 278 279 281 282 282 282 280 279 282 282 282 281 281 282 282 284 284 284 283 281
282 281 280 280 279 279 277 277 277 275 273 271 268 270 272 271 277 278 279 280 280 279 278 279 280 280 280 280 279 280 280 280 279 280 280 280 280 281 283 283 283 284 284
281 280 280 280 279 278 277 276 276 274 271 271 274 273 273 275 274 277 278 279 280 279 280 281 279 278 278 276 278 278 277 277 277 278 279 279 281 282 283 283 283 284 284
280 280 279 278 278 277 277 277 276 272 270 274 272 272 273 273 273 274 278 278 280 281 279 278 277 277 274 274 275 276 276 276 276 276 278 280 281 281 281 283 281 282 281
280 280 279 278 277 277 277 276 276 275 272 273 271 271 272 272 274 278 278 278 279 278 278 276 274 273 272 273 273 273 274 275 275 275 276 278 279 280 280 281 282 281 280
280 279 275 274 274 276 275 275 278 278 279 278 278 275 275 277 278 278 278 278 278 277 275 272 271 271 269 271 271 271 271 272 273 274 275 277 277 278 278 278 280 280 279
274 275 273 274 272 271 270 270 266 271 276 276 277 276 276 277 277 277 276 276 276 274 272 271 270 269 269 270 271 271 269 270 272 272 273 274 275 277 277 277 279 280 280
270 271 271 270 268 268 263 265 262 262 263 266 272 274 275 276 276 275 274 273 270 271 270 269 268 269 269 269 269 269 270 270 270 270 271 271 271 274 273 275 276 276 276
277 273 267 265 265 265 263 263 262 262 262 265 268 269 270 274 274 273 272 268 267 267 268 268 268 268 268 268 268 267 267 269 269 267 269 269 269 272 275 271 271 270 272
276 273 269 268 267 266 265 264 265 263 265 267 265 265 269 269 267 267 268 267 267 267 266 267 267 267 267 267 267 267 268 268 269 268 266 266 267 268 268 269 268 269 270
271 272 271 270 268 266 264 263 262 263 265 267 263 263 269 267 267 267 267 266 266 266 266 266 266 266 266 266 267 266 266 268 269 268 266 266 263 265 267 267 267 269 269
272 269 269 267 266 263 263 263 260 262 264 264 264 265 268 266 266 267 267 266 266 266 266 265 264 265 265 265 265 265 265 265 266 267 265 265 265 265 265 265 266 266 268
275 268 266 267 264 262 260 261 259 258 261 261 262 264 266 265 265 267 266 265 266 266 265 265 264 264 264 264 265 265 265 265 264 263 264 263 265 264 264 266 266 266 266
270 268 271 265 259 263 257 257 256 259 262 260 259 261 264 264 265 265 265 265 265 265 265 264 264 263 264 264 264 264 264 265 264 263 260 262 263 263 263 265 266 265 266
275 276 268 262 260 261 258 257 256 255 256 258 258 260 263 264 266 266 266 265 265 265 265 264 264 264 263 263 263 263 262 262 262 261 263 262 261 261 260 262 260 263 263
277 277 272 265 261 261 261 259 257 255 256 258 257 260 261 262 264 265 267 267 266 265 265 265 264 263 264 265 264 264 261 261 261 261 261 263 261 260 260 260 260 261 261

GFSGL_sfc_thetae_003.txt.gz
Theta_e
300 299 299 298 295 294 295 295 296 297 296 295 295 295 295 294 293 293 293 293 292 292 293 292 291 292 291 291 292 291 290 289 286 289 291 293 293 293 294 296 297 297 298
299 299 298 295 293 293 294 295 296 296 295 295 294 294 293 293 294 292 291 290 289 289 289 289 289 288 289 290 290 289 289 290 288 286 289 290 291 293 294 295 294 295 297
298 298 295 294 293 293 295 296 297 296 296 295 295 294 293 291 291 290 289 289 289 288 288 287 287 287 286 287 287 287 287 287 288 286 286 289 290 291 290 292 292 293 294
297 296 296 294 294 294 295 296 296 295 294 293 294 294 292 290 288 288 288 287 286 286 286 286 285 285 284 285 284 285 285 285 285 285 285 285 287 288 289 288 288 291 291
296 295 294 295 295 293 292 292 294 294 294 294 293 291 288 287 286 288 286 286 285 285 285 285 285 285 284 284 284 285 285 284 284 283 282 283 284 284 284 287 286 288 290
292 290 290 291 292 292 292 292 291 290 288 287 287 286 286 286 287 285 286 286 285 284 283 284 284 284 284 283 283 284 284 283 282 282 282 281 283 284 284 284 285 284 283
289 290 291 292 290 288 288 287 287 286 286 285 285 285 285 286 284 284 284 284 283 283 282 282 282 282 283 283 283 283 283 283 282 283 281 282 282 284 284 283 284 284 284
289 291 292 289 287 287 287 286 285 285 284 284 284 284 283 283 282 282 282 283 282 282 282 282 282 282 283 282 281 282 282 283 284 283 283 284 285 285 285 285 285 285 286
289 290 288 287 286 285 284 284 284 283 283 283 283 282 282 282 281 281 281 282 281 281 281 282 282 282 282 283 282 281 282 283 284 285 285 285 285 285 285 285 283 282 281
288 287 287 286 285 284 284 283 283 283 282 282 281 281 281 281 280 280 281 281 280 280 281 282 282 282 282 282 282 281 280 281 283 285 285 285 286 286 285 285 285 281 281
288 287 286 285 284 284 283 283 282 282 281 281 280 280 280 280 280 279 280 280 279 279 280 281 283 282 281 281 281 281 280 281 281 282 283 284 285 285 285 286 286 285 283
288 286 285 285 284 283 283 283 282 282 281 280 279 279 280 280 279 279 279 280 280 280 280 282 283 279 279 278 279 279 279 279 280 280 281 281 282 284 285 286 286 287 288
286 286 285 285 284 283 282 282 281 281 280 279 278 277 278 279 279 278 279 279 280 280 282 280 279 278 277 277 277 277 277 279 279 279 279 281 283 285 286 286 286 286 286
285 285 285 284 283 284 282 282 280 280 279 278 277 276 276 277 277 279 279 280 280 281 281 280 278 277 276 277 277 278 278 278 277 278 279 281 283 284 284 285 284 284 283
284 284 284 283 282 282 282 281 280 281 279 278 277 277 275 275 277 278 278 278 279 278 279 277 275 275 275 276 276 276 277 277 277 277 279 280 282 283 283 284 284 284 282
283 283 283 282 282 281 280 280 280 278 278 278 277 277 277 277 278 277 277 277 277 276 275 273 272 273 274 274 274 274 275 275 276 277 278 279 280 281 282 283 283 283 282
282 282 282 279 281 280 279 279 277 278 277 276 276 276 276 276 276 276 275 275 275 274 272 272 271 271 272 273 273 273 273 275 276 276 276 277 278 281 281 282 282 282 282
280 276 281 281 280 279 279 278 277 276 274 274 275 274 274 275 275 274 274 272 271 271 271 270 270 271 271 272 272 272 273 275 275 275 275 276 277 279 280 280 281 281 282
282 282 281 280 280 277 278 277 277 276 275 274 274 274 273 273 273 272 272 270 269 268 269 269 270 270 271 271 272 272 273 273 274 274 275 275 275 276 277 279 280 277 279
282 279 276 280 280 279 278 277 276 276 275 274 273 272 272 272 271 270 270 270 269 268 268 269 269 270 270 270 271 271 273 274 274 274 274 275 275 276 276 277 278 278 278
281 281 275 280 279 278 277 276 276 275 274 274 272 272 270 270 270 270 269 269 269 268 268 268 269 269 270 271 271 271 272 273 273 273 274 275 275 275 276 277 277 277 277
280 279 280 279 279 278 277 276 275 274 274 273 272 272 270 271 270 270 269 269 269 269 269 269 268 269 269 269 269 270 271 271 272 272 273 274 275 276 276 276 276 276 276
279 280 279 279 277 274 277 276 275 275 274 274 272 271 271 271 270 270 270 269 269 269 269 268 268 268 268 269 269 269 269 270 270 270 271 274 275 275 276 276 275 275 274
280 280 279 279 277 276 276 276 275 272 273 274 273 272 271 271 270 270 270 270 269 269 269 268 268 267 268 268 269 269 268 268 270 271 271 272 273 273 274 274 274 273 274
280 280 280 279 278 276 275 276 275 274 274 274 274 273 272 272 271 271 271 271 270 269 268 268 267 267 267 267 267 267 265 265 266 267 272 272 271 271 270 272 272 273 272
281 281 281 280 278 276 276 275 276 275 274 274 274 273 273 272 271 271 271 271 270 269 268 268 268 267 267 268 267 266 265 264 265 264 270 271 270 270 271 270 270 272 271

GFSGL_sfc_thetae_006.txt.gz
Theta_e
307 306 304 303 301 301 301 300 301 301 300 299 298 298 298 296 295 295 294 295 294 293 293 293 292 293 293 293 293 293 292 292 288 291 293 295 295 296 296 297 297 298 298
303 302 302 301 301 300 300 300 299 299 299 299 298 296 296 296 295 293 293 294 293 292 292 292 291 290 291 291 291 291 291 292 290 288 291 292 293 295 296 296 295 296 297
301 301 300 300 300 299 298 298 298 297 296 296 296 295 295 294 294 294 292 292 292 292 291 290 290 290 289 290 290 289 290 289 290 288 288 291 292 293 293 294 294 295 295
301 300 299 299 298 298 296 297 296 296 295 295 294 293 293 292 291 291 290 290 290 289 290 289 289 288 288 288 287 287 287 287 288 287 287 288 289 291 291 290 290 292 292
300 298 296 296 296 296 295 294 294 293 292 291 291 291 290 290 289 289 289 289 289 289 289 288 288 288 286 286 285 286 286 286 286 287 286 287 287 288 287 290 288 290 291
298 295 295 295 295 293 293 292 291 291 290 290 289 289 289 288 286 285 286 287 287 287 287 287 287 287 286 286 285 284 285 284 284 284 284 283 285 286 288 286 287 286 284
296 294 294 295 292 291 291 290 289 289 290 289 289 288 288 288 283 283 283 285 285 285 286 286 285 285 285 286 285 285 284 284 282 283 282 283 283 285 286 285 285 285 285
295 294 294 292 290 290 289 289 289 289 288 288 288 287 287 286 283 282 281 284 285 285 285 285 285 285 285 284 283 283 283 284 285 285 284 284 285 286 287 287 286 286 287
293 293 292 291 290 288 288 288 289 288 288 287 287 286 285 285 283 281 281 283 283 283 284 284 283 283 283 283 283 282 283 284 286 286 286 285 285 286 286 286 285 284 284
293 293 292 291 289 288 288 288 289 288 287 286 285 286 284 284 282 281 281 282 280 281 282 282 283 283 283 283 283 283 281 282 283 285 286 286 286 286 285 286 286 283 283
293 293 292 291 288 289 289 289 288 287 286 284 284 284 284 283 282 281 280 280 280 279 280 282 284 282 281 280 280 281 280 282 281 281 282 283 285 286 287 288 288 287 284
294 293 291 290 288 288 288 288 288 287 284 283 283 283 283 284 281 280 280 280 281 280 280 283 284 280 280 279 279 279 279 279 281 281 282 281 283 284 286 288 288 288 289
292 291 290 289 288 289 288 287 286 285 282 281 281 280 281 281 282 280 280 280 280 280 282 281 279 279 279 279 278 278 278 281 281 280 281 282 284 286 287 287 288 288 288
290 289 289 289 288 288 288 286 285 283 281 280 280 279 279 279 279 279 280 280 280 281 280 282 279 278 279 279 280 280 280 280 279 279 280 282 284 285 286 287 285 286 285
288 288 288 288 288 287 286 285 284 283 281 279 279 279 277 277 277 278 278 278 278 278 279 279 277 277 277 278 278 278 279 280 279 280 281 281 282 284 285 286 286 285 284
285 287 288 287 287 286 285 284 280 279 278 278 277 277 278 277 277 277 277 276 276 276 277 275 274 274 275 277 277 277 278 278 278 280 280 281 281 283 284 285 284 284 284
285 286 287 285 286 285 284 283 281 282 278 277 276 276 276 276 276 276 276 275 275 275 274 274 273 273 274 275 276 276 276 277 279 279 279 280 280 281 283 284 284 283 283
285 282 286 286 286 284 283 282 281 280 279 279 278 276 275 275 275 274 274 275 273 273 273 272 272 273 274 274 275 274 276 277 277 277 278 279 279 280 281 281 283 282 284
284 285 285 285 284 282 282 281 281 280 279 278 278 277 276 275 274 274 274 273 272 271 271 272 273 273 274 274 275 275 276 276 277 277 277 278 278 279 279 280 280 280 281
283 281 282 284 283 282 281 281 280 279 279 278 277 275 275 275 274 274 273 273 272 271 271 272 272 273 273 274 274 275 276 276 276 276 277 278 278 279 279 279 279 279 279
284 283 280 283 282 282 281 280 280 279 278 278 277 275 272 273 273 273 273 272 272 272 271 272 272 273 273 273 274 274 275 275 275 275 276 277 279 278 279 279 279 279 279
284 284 283 282 282 281 281 280 279 279 278 277 277 276 272 274 273 273 273 272 272 272 272 272 272 272 272 272 272 273 273 274 275 275 275 277 278 278 278 278 278 278 278
283 283 282 281 282 280 280 280 279 279 279 278 277 277 276 275 274 273 273 273 272 272 271 272 272 271 272 272 272 273 272 272 273 275 274 276 277 277 278 277 277 277 277
283 283 282 282 281 280 280 280 280 278 278 278 278 277 276 276 275 274 274 274 273 273 272 271 271 270 270 271 272 272 271 271 272 273 275 275 275 276 277 276 276 276 276
283 283 283 282 281 280 280 280 279 279 279 278 278 278 277 276 275 275 275 275 274 273 272 271 271 270 270 269 269 269 268 268 269 269 275 275 274 274 274 275 275 276 275
283 283 283 283 282 281 280 279 279 279 278 279 278 278 277 276 276 275 274 274 273 273 271 272 271 270 270 270 269 268 267 267 268 269 273 274 273 273 274 273 273 275 274

GFSGL_sfc_thetae_009.txt.gz
Theta_e
308 306 305 304 303 302 302 302 301 300 300 299 299 298 298 297 297 297 296 296 295 295 295 295 294 294 293 293 294 294 293 292 289 292 293 296 297 297 297 299 299 299 299
305 304 303 303 302 301 301 299 300 299 300 299 298 297 297 296 296 295 294 294 293 292 293 293 292 292 292 292 291 291 291 292 290 288 291 293 294 296 297 297 296 296 297
303 302 301 301 300 300 299 298 298 297 297 296 296 295 294 294 293 292 292 292 292 291 291 291 290 290 289 290 290 290 290 289 290 289 289 292 293 294 294 295 295 297 296
302 300 300 299 298 297 297 296 295 295 294 293 292 292 292 291 291 291 291 290 290 290 290 290 289 289 289 288 288 288 288 287 287 287 288 288 290 291 292 291 291 294 294
301 300 298 298 298 296 295 295 294 293 292 292 291 291 291 290 289 289 289 288 287 288 289 289 290 290 288 287 286 286 285 285 285 285 286 287 288 289 289 291 290 292 293
300 298 298 297 296 295 294 293 292 291 291 291 290 290 290 289 285 284 284 285 285 285 285 287 288 289 288 288 287 287 285 283 282 284 284 284 286 287 289 288 288 287 285
299 298 297 296 295 293 292 291 290 290 291 290 289 289 288 289 284 284 283 284 284 284 285 286 286 286 287 287 286 286 285 285 283 283 281 282 283 285 286 286 286 286 286
298 296 296 295 294 292 291 290 290 290 290 289 289 288 288 287 285 283 282 283 283 284 284 285 285 285 286 285 284 284 284 284 285 285 285 285 286 287 287 286 286 287 288
296 295 294 294 292 291 290 290 290 289 289 288 288 287 286 286 285 283 282 282 282 282 283 283 284 283 284 284 283 282 283 284 286 287 286 286 286 286 287 286 284 283 283
295 294 294 293 292 290 290 289 290 289 288 288 287 286 285 285 285 283 282 282 280 281 282 282 283 283 284 284 283 283 281 282 283 284 285 285 286 287 286 286 285 282 283
295 294 294 294 292 291 290 290 289 289 288 287 286 286 285 285 284 283 281 281 280 280 281 282 284 281 281 281 281 281 280 281 281 281 282 283 284 285 287 288 288 286 284
295 294 293 293 291 290 290 289 289 288 287 286 285 285 285 286 283 282 281 280 281 280 280 282 283 281 280 280 280 280 279 279 280 280 281 282 283 284 285 287 289 289 289
293 293 292 291 290 290 289 288 287 287 285 283 282 282 282 283 283 281 280 280 280 280 282 280 281 280 280 280 281 279 279 280 282 281 281 282 284 286 287 287 288 289 289
291 290 290 289 288 289 289 288 286 285 283 282 281 279 279 279 281 280 279 280 279 279 279 280 281 279 280 280 281 281 282 282 280 281 281 282 284 285 286 287 286 286 286
289 288 288 289 288 288 287 287 286 285 282 280 279 279 277 277 278 278 278 277 277 277 277 279 278 277 277 278 279 280 281 280 280 281 281 282 283 284 285 287 286 286 284
287 287 288 288 288 287 286 285 281 280 279 278 277 277 278 277 277 277 277 277 277 277 277 275 275 275 275 276 277 277 279 278 279 280 281 281 281 282 283 286 286 285 284
286 286 287 286 286 285 284 283 282 283 280 279 277 277 276 276 276 276 276 276 276 276 275 274 274 274 275 275 276 276 276 278 279 279 280 280 281 281 282 283 284 285 284
286 285 286 286 286 285 283 282 282 281 280 281 280 277 277 277 276 276 276 276 275 275 274 274 274 274 274 275 275 275 277 278 278 279 279 280 280 280 280 280 281 281 282
285 284 285 285 284 283 283 283 283 282 281 280 280 280 278 277 277 276 276 274 273 273 273 273 274 274 274 275 276 276 277 277 277 278 278 279 279 280 280 280 280 281 281
287 283 283 283 283 283 283 282 281 281 280 280 279 279 277 276 276 276 276 274 273 273 273 273 273 274 274 274 275 276 276 276 276 276 277 279 280 280 279 279 280 279 279
285 284 283 283 283 282 282 282 281 281 280 280 280 278 274 275 275 275 275 274 273 273 273 273 273 274 274 274 274 274 275 275 275 276 276 278 279 279 280 280 280 280 279
283 283 283 283 282 283 282 281 281 280 280 279 280 279 275 277 276 275 275 275 274 274 273 273 273 273 273 273 273 273 273 273 273 274 275 277 278 278 279 279 279 279 278
284 283 283 283 283 282 282 282 281 281 280 280 280 279 279 278 276 276 275 275 275 274 274 273 272 272 272 272 273 272 271 270 271 273 273 275 276 277 278 277 277 277 277
284 283 282 283 283 282 282 282 281 281 281 280 280 280 279 278 277 276 276 276 275 275 274 273 272 271 271 271 272 272 271 270 270 271 272 275 275 275 276 276 276 276 276
285 284 283 283 283 283 282 281 281 281 282 281 280 280 279 279 278 277 277 276 276 275 274 273 273 272 271 271 270 269 268 268 269 269 273 275 274 274 275 275 274 276 275
284 283 284 284 283 283 283 281 280 281 281 281 281 280 280 278 278 277 277 276 275 274 274 273 273 271 271 272 270 269 268 267 267 268 272 273 272 272 272 273 272 274 274

GFSGL_sfc_thetae_015.txt.gz
Theta_e
299 299 297 297 297 296 295 294 293 293 293 294 293 292 291 291 291 290 290 291 291 289 289 288 288 289 290 291 291 290 289 288 283 284 286 287 287 288 291 295 297 296 296
299 298 297 296 295 293 293 293 292 292 293 292 291 289 289 288 287 286 286 286 285 284 284 284 284 286 285 286 286 285 286 285 284 280 282 283 284 286 287 287 291 294 294
298 297 296 295 295 292 292 292 292 292 290 289 288 288 288 288 287 286 285 285 284 284 283 283 283 283 282 283 284 283 283 285 282 280 279 282 282 284 285 285 286 289 291
297 296 296 296 296 294 292 291 292 291 288 287 288 288 288 287 286 285 284 283 282 283 283 282 282 282 282 282 284 283 283 281 281 279 279 280 281 283 283 282 282 284 286
298 296 296 296 295 293 295 294 293 291 288 288 287 287 287 286 285 283 282 281 280 280 281 281 282 283 285 286 284 284 282 280 279 278 278 278 278 279 279 281 280 282 283
296 296 296 295 295 295 294 294 292 288 287 287 286 286 284 286 285 285 283 279 280 280 278 279 280 282 283 284 285 285 284 282 278 277 277 276 277 277 280 278 278 278 278
291 295 295 295 294 293 295 294 289 285 285 286 284 284 284 283 286 286 284 281 279 278 277 278 279 280 281 281 283 284 283 284 283 282 280 278 278 279 279 278 277 277 277
291 293 293 293 292 293 293 291 286 286 285 283 283 283 282 284 286 287 285 280 278 279 279 279 278 279 280 281 280 280 280 280 281 282 281 281 280 281 281 282 281 283 280
291 291 291 292 291 291 291 287 287 286 283 283 283 283 282 281 285 284 282 278 279 278 279 279 279 278 281 283 280 279 279 280 284 285 285 285 285 286 286 284 280 280 278
291 292 292 291 290 289 288 288 286 284 284 283 283 282 283 280 284 283 282 279 276 277 278 278 280 279 281 282 279 277 276 277 279 279 279 280 281 281 283 281 281 279 279
291 291 290 291 290 290 289 287 284 281 282 279 279 280 280 280 279 282 281 277 276 276 276 276 278 280 280 282 281 279 277 279 279 278 277 277 279 279 280 282 281 281 279
289 289 288 288 288 289 285 283 281 280 279 277 270 273 276 277 280 279 279 278 278 275 275 276 277 280 280 280 280 281 281 280 277 277 277 277 278 279 282 284 284 283 284
287 286 286 287 287 286 282 280 280 279 276 276 277 271 274 276 274 278 278 278 278 276 277 278 279 279 279 279 280 280 279 279 278 277 278 279 280 281 283 283 283 284 284
285 285 284 284 284 283 282 281 279 275 274 277 275 273 271 273 272 274 275 272 277 277 276 276 277 277 277 278 277 278 278 278 277 276 277 279 281 282 282 283 282 284 283
285 284 282 282 281 282 281 279 279 277 276 274 272 272 264 263 271 278 277 276 276 276 275 275 274 274 274 275 275 276 276 277 276 276 277 278 279 279 280 281 283 280 277
282 281 280 279 278 280 280 279 282 281 281 280 279 271 268 275 278 279 278 278 278 276 273 272 272 271 271 273 273 273 274 275 276 276 276 277 277 277 278 279 278 277 277
282 282 279 279 279 277 276 276 273 279 283 283 281 280 279 278 279 279 278 277 276 275 271 271 270 270 271 272 272 272 272 275 275 275 275 275 276 277 277 277 277 277 277
281 280 278 276 275 275 279 280 279 277 271 276 280 281 278 278 278 278 278 275 268 270 270 270 270 270 271 271 271 271 272 273 273 273 273 274 275 276 273 275 275 271 276
282 279 276 273 273 280 279 279 279 278 278 274 273 275 273 277 278 277 277 265 263 264 268 270 270 271 270 270 269 270 270 270 270 270 271 272 273 275 275 272 272 272 274
280 278 276 274 275 280 279 278 278 278 277 276 272 269 268 267 262 261 261 260 260 263 263 267 270 270 269 269 269 268 269 268 268 268 268 269 271 274 273 274 275 272 271
278 277 275 276 277 279 279 278 278 277 277 275 271 268 266 265 263 262 263 261 262 262 260 263 264 266 267 267 269 268 267 265 266 266 266 267 268 270 272 274 273 273 273
275 275 274 274 279 279 279 279 278 276 277 276 273 270 267 262 266 265 263 262 261 262 262 262 262 264 267 267 268 265 265 263 264 265 265 266 267 270 270 270 271 267 269
273 271 276 279 280 277 278 278 278 276 276 277 276 269 268 266 265 265 264 261 262 262 261 261 259 261 262 265 264 266 265 264 265 264 264 265 267 268 267 267 266 268 264
272 270 274 278 272 272 277 279 278 279 276 271 273 275 268 268 264 264 263 261 261 261 260 260 261 262 262 263 265 265 266 263 264 265 264 265 267 267 266 267 267 266 264
273 271 271 272 271 274 273 276 280 279 278 270 269 271 271 266 266 263 262 262 262 260 261 260 260 262 262 262 264 265 265 265 264 265 265 265 265 265 265 266 263 264 261
276 275 275 278 271 274 273 276 276 278 278 278 272 271 272 268 268 267 263 262 262 261 261 259 260 261 261 261 264 265 265 265 264 265 265 266 263 264 263 263 263 263 263

GFSGL_sfc_thetae_021.txt.gz
Theta_e
296 295 295 294 294 294 293 292 291 291 294 294 294 292 289 287 286 285 285 285 284 282 282 281 281 282 281 280 281 281 281 282 280 282 284 285 283 283 284 286 286 286 291
294 294 294 293 293 292 292 291 291 291 291 290 290 290 288 287 287 284 284 284 282 281 281 281 281 282 279 279 279 279 279 281 280 278 280 280 281 283 283 282 286 288 286
293 291 291 292 292 291 291 291 291 290 290 290 291 288 287 287 285 284 283 282 281 281 281 280 280 279 278 278 278 278 279 281 280 279 280 280 280 280 280 281 282 282 286
290 291 291 292 292 291 290 289 290 290 291 291 289 288 287 286 285 283 282 281 281 281 281 280 280 279 278 277 278 278 280 280 280 280 279 279 279 280 280 279 279 280 280
290 291 291 292 292 291 291 291 290 292 293 290 288 286 285 285 284 282 282 281 280 280 280 280 280 281 283 281 279 278 277 277 280 280 279 279 279 278 277 278 278 278 278
290 291 292 292 292 291 291 290 290 291 289 287 286 284 284 284 286 286 286 281 281 280 279 279 279 280 280 281 281 281 281 278 277 278 278 278 279 277 277 277 276 275 274
290 290 291 290 289 289 290 289 288 288 288 283 283 283 282 281 286 285 284 281 279 278 278 278 278 279 279 278 280 281 281 282 281 279 277 278 278 279 278 276 276 275 275
289 289 289 289 288 288 288 287 285 285 283 281 281 281 280 282 283 283 282 278 277 277 277 277 276 277 278 279 279 280 279 280 280 281 281 280 279 280 279 279 278 278 278
288 288 288 288 288 288 286 286 284 284 281 281 281 280 278 278 281 281 280 276 276 276 277 277 277 277 279 281 280 278 278 279 281 282 282 282 283 283 283 281 279 278 277
287 288 287 287 286 286 286 285 285 282 282 281 280 279 280 277 279 280 279 274 270 275 276 276 278 278 280 280 278 277 276 277 278 278 278 279 280 279 281 279 278 276 275
287 287 286 285 284 284 284 283 281 281 280 278 277 277 278 278 276 279 279 274 275 275 275 275 277 279 279 280 280 278 278 279 279 279 278 278 278 278 278 279 278 277 275
286 285 284 284 283 283 280 280 280 279 278 276 266 271 274 275 278 278 279 279 278 275 275 275 276 278 278 278 278 279 279 278 277 276 277 277 277 278 280 280 281 280 280
285 284 283 283 282 281 279 278 278 277 274 274 275 270 272 276 273 277 278 278 278 273 274 276 277 277 276 276 277 277 276 276 275 274 275 276 278 280 282 282 282 283 283
284 283 282 282 281 281 280 280 278 274 272 276 273 272 270 271 271 272 275 271 276 274 272 272 272 275 273 274 274 275 275 275 275 274 275 277 279 279 280 281 281 282 282
284 284 282 281 280 279 279 279 279 278 276 274 273 271 262 262 270 278 276 273 269 271 266 265 268 270 269 271 271 272 273 273 272 273 274 274 276 278 279 280 280 279 276
283 283 282 280 279 279 279 279 282 281 281 283 282 271 267 275 279 279 279 277 276 274 267 262 260 262 267 269 269 269 270 270 271 271 272 273 273 275 276 278 277 277 276
283 284 283 281 280 278 276 277 276 277 281 282 282 282 281 279 279 278 278 276 275 272 262 260 257 262 263 269 269 268 268 267 269 269 270 270 271 273 274 275 275 276 276
283 282 282 280 281 278 275 274 272 272 269 270 277 280 282 280 279 278 277 273 266 266 264 261 260 261 263 267 268 267 267 266 265 266 267 267 268 270 271 273 273 270 272
284 282 280 279 273 274 274 271 272 270 270 270 268 272 272 279 278 277 275 264 262 262 263 264 260 262 262 263 260 263 263 263 262 262 264 265 266 268 270 271 271 269 268
284 283 279 278 275 277 278 275 275 276 270 271 267 267 267 266 262 259 258 255 256 261 261 263 264 263 259 259 256 256 262 262 263 263 262 262 263 265 268 269 270 266 267
284 283 280 279 279 279 276 276 277 274 276 271 268 266 268 267 265 264 264 260 261 262 260 262 260 257 258 257 261 257 258 257 262 262 262 263 262 262 266 266 267 267 268
283 281 280 280 280 273 272 275 273 273 274 270 269 267 266 263 266 266 264 264 263 263 263 261 262 261 261 261 260 254 256 255 258 261 261 263 264 264 264 264 263 261 264
283 281 279 275 273 270 267 269 269 272 276 272 272 270 264 264 267 266 266 265 262 261 261 260 258 260 258 256 255 258 258 257 258 259 260 261 263 264 263 262 262 262 261
283 280 276 273 268 268 266 267 267 271 273 274 272 267 267 266 265 265 265 264 259 259 257 259 261 262 261 256 254 256 260 257 257 259 258 261 263 264 262 263 263 261 260
283 279 275 273 271 271 270 269 269 270 277 276 271 273 271 268 265 266 265 263 262 258 261 260 260 261 261 260 259 260 258 260 258 258 258 260 261 261 262 262 260 262 260
283 280 279 279 277 275 275 274 274 274 274 275 276 274 272 271 272 269 266 263 262 262 262 258 260 261 261 260 260 260 258 259 257 258 257 260 261 262 261 261 261 261 262

GFSGL_sfc_thetae_024.txt.gz
Theta_e
295 294 293 292 292 292 291 291 291 292 292 292 291 290 289 289 288 286 285 285 284 283 282 281 281 281 281 280 280 280 279 279 277 279 282 284 285 285 286 287 288 287 288
293 291 290 291 292 291 290 290 290 290 290 290 289 290 291 289 286 286 284 284 283 281 281 281 281 282 280 279 279 278 278 279 278 277 280 281 282 284 284 284 285 286 287
290 289 290 291 291 290 290 290 290 289 288 289 292 291 288 286 285 284 283 283 281 281 281 280 280 280 279 278 278 278 278 279 279 280 279 282 282 282 282 283 283 284 286
288 289 290 289 289 289 289 289 289 289 289 291 292 290 286 285 285 283 282 281 281 281 281 281 280 280 279 278 278 279 278 278 278 277 278 280 281 282 281 281 280 282 282
288 289 289 290 290 290 289 289 289 289 290 289 287 286 285 284 284 282 282 282 281 280 281 281 281 281 283 282 279 279 278 277 278 278 277 278 279 280 279 281 280 280 280
286 289 290 290 289 289 288 288 288 288 289 289 286 283 282 283 286 286 284 281 280 279 278 278 278 279 279 280 280 280 280 278 277 277 277 276 277 279 280 280 279 277 277
286 289 289 289 288 287 287 287 287 288 289 283 281 281 280 282 285 283 283 280 278 277 276 276 276 278 278 278 279 280 280 281 280 279 278 278 278 279 280 279 279 278 277
287 288 288 287 287 287 286 286 285 283 283 281 280 280 280 281 282 282 281 278 276 277 276 276 276 276 278 279 279 279 279 280 280 281 280 280 281 281 281 280 280 280 280
287 287 287 286 285 285 284 285 284 284 282 281 281 279 278 277 281 280 279 276 276 276 277 277 277 277 279 281 279 278 278 279 281 283 283 282 282 282 282 282 279 279 277
286 286 286 285 284 283 283 283 283 281 282 281 280 279 280 277 279 280 279 274 271 275 276 277 278 278 279 280 278 276 276 277 278 279 280 280 281 280 281 280 279 277 278
286 286 285 284 283 283 281 281 280 280 280 278 277 278 278 278 276 279 280 275 275 276 275 275 276 278 279 279 279 277 277 278 278 278 278 279 280 280 279 280 279 278 277
285 284 283 283 283 283 280 280 280 278 278 275 266 271 274 275 278 278 280 279 278 271 273 274 275 277 277 277 277 278 278 276 276 275 276 276 278 279 281 281 280 280 280
283 283 283 284 283 282 279 278 278 277 273 274 275 270 272 275 274 277 278 279 277 271 273 274 276 275 275 275 275 276 275 274 274 273 274 275 277 279 281 282 283 282 282
283 283 283 283 282 282 280 280 278 273 274 276 274 272 270 271 271 272 274 272 274 274 271 270 270 273 270 271 273 273 273 273 272 272 273 274 277 278 279 281 280 282 281
283 283 282 283 282 281 279 278 279 278 277 275 274 272 263 262 270 275 276 271 267 271 265 264 266 267 268 270 270 271 271 270 270 271 271 272 274 275 277 279 279 279 278
282 282 284 283 281 280 279 279 282 281 282 282 282 272 268 275 278 280 279 277 276 274 266 261 258 257 262 267 268 268 269 268 268 269 270 271 271 272 274 277 277 277 277
282 284 284 282 282 279 277 278 273 277 282 282 283 283 281 277 280 279 278 277 275 271 263 261 256 256 259 266 267 268 267 267 267 267 268 268 269 271 272 274 274 274 275
283 283 283 282 281 281 280 278 275 272 270 270 277 280 281 282 281 279 278 274 266 266 264 262 260 260 263 265 266 265 266 265 265 264 265 265 267 269 270 271 272 270 272
284 283 282 280 280 278 276 277 274 271 273 271 269 272 271 281 280 279 277 265 264 263 264 265 262 263 264 264 259 258 256 262 263 262 263 263 263 266 269 270 270 267 268
285 284 282 279 278 277 278 274 274 274 276 272 271 269 266 266 264 261 258 257 257 263 263 265 265 264 262 261 257 255 258 257 262 263 263 262 262 263 266 267 268 268 269
284 284 281 280 279 278 278 274 273 276 276 277 272 265 266 270 268 265 264 260 263 264 263 264 263 260 260 259 262 259 258 256 258 261 262 263 263 263 265 265 266 267 268
282 283 282 281 280 279 279 275 271 272 273 275 273 268 268 270 267 267 266 265 265 265 265 264 264 264 263 264 263 256 257 256 257 258 260 262 264 265 265 264 264 264 266
282 282 282 281 279 277 267 269 269 269 270 271 272 271 267 267 266 267 268 266 265 264 263 262 261 262 262 259 259 261 260 261 260 257 257 259 263 264 264 264 265 265 264
283 283 282 279 276 275 271 269 269 268 270 272 272 271 271 270 268 268 268 268 265 262 259 260 263 263 263 259 258 258 262 260 259 260 257 258 260 263 264 265 265 264 264
284 283 282 278 275 274 274 272 272 272 273 273 275 275 274 273 273 269 269 268 267 263 263 260 262 263 263 263 261 261 259 261 258 257 259 259 259 258 261 264 263 264 264
283 283 283 281 276 277 277 277 276 276 276 276 277 276 275 274 274 273 272 269 268 266 267 264 262 262 262 262 262 261 258 259 258 257 257 261 260 260 260 262 263 264 264

GFSGL_sfc_thetae_027.txt.gz
Theta_e
302 300 299 299 299 300 300 300 300 300 299 299 298 297 296 293 294 295 293 292 291 291 291 289 288 288 287 287 287 286 284 283 280 282 284 285 286 287 288 290 291 293 293
297 297 297 298 299 298 297 297 298 297 297 296 296 295 296 296 295 294 291 291 289 289 288 287 287 287 286 286 285 284 284 283 281 279 282 283 284 286 287 288 289 290 292
296 296 297 297 297 296 296 296 296 296 296 296 295 296 294 294 291 290 289 288 287 287 287 287 286 286 284 284 284 283 282 282 281 280 280 282 283 285 285 287 288 289 290
294 295 295 296 296 296 296 295 295 295 296 296 295 293 292 290 289 288 287 287 288 287 286 285 284 283 283 282 281 281 281 281 280 279 279 280 281 283 284 284 284 287 287
294 293 295 296 296 295 295 294 295 295 295 293 290 289 289 289 288 288 288 287 286 284 284 282 282 282 281 281 281 280 280 279 279 279 279 279 279 280 279 282 282 284 286
293 292 295 295 294 294 294 294 294 293 293 293 289 289 287 287 286 285 285 285 283 282 280 281 281 280 281 280 280 280 281 280 279 279 278 279 279 281 281 281 281 281 280
291 292 293 293 293 293 292 292 291 292 292 290 288 287 287 286 283 283 282 283 281 281 280 279 279 280 280 280 280 281 282 281 281 281 279 280 279 281 281 281 282 281 281
291 292 292 292 291 291 291 290 290 292 291 290 287 286 286 283 282 281 281 282 281 280 280 280 279 279 280 279 281 280 280 280 281 282 282 282 282 283 282 282 282 283 283
291 291 292 291 290 290 289 289 290 290 290 288 287 285 283 283 280 280 281 281 280 280 280 280 279 279 279 280 279 279 278 279 281 281 282 283 283 283 283 282 280 280 280
290 290 291 291 290 289 289 288 288 289 288 287 285 284 281 282 279 280 281 282 280 279 280 279 278 278 279 279 278 278 276 278 279 280 281 282 283 283 282 283 281 279 280
290 290 290 290 289 289 288 287 287 287 286 284 283 283 282 281 281 279 280 281 280 279 278 277 278 277 278 277 278 278 277 278 278 279 279 281 281 282 283 284 283 282 280
290 289 289 289 288 287 287 287 286 286 284 283 281 282 283 282 279 279 279 280 279 278 277 277 277 277 276 276 277 277 276 277 278 278 278 278 279 280 282 283 285 285 284
288 288 288 288 288 288 286 286 285 284 283 283 282 282 282 282 282 278 279 279 279 278 278 276 275 275 275 275 275 275 275 275 275 275 276 277 278 280 282 284 285 286 285
287 288 288 287 287 288 287 285 284 284 283 282 282 282 282 281 281 281 281 281 278 278 276 276 274 274 273 274 275 275 274 274 273 274 275 277 279 280 281 282 282 283 284
286 287 287 287 287 286 286 285 284 285 284 284 283 282 282 281 281 280 280 280 280 277 274 275 274 273 273 273 274 274 273 272 273 274 274 275 276 278 279 281 281 282 281
285 286 287 287 286 286 285 285 283 283 282 283 283 281 283 281 279 280 280 279 277 275 275 274 273 272 272 272 272 272 273 271 271 273 273 274 274 276 277 279 280 279 279
285 285 286 285 286 285 284 284 283 285 282 283 284 284 283 282 280 281 281 279 277 275 275 274 273 272 272 272 272 272 271 271 270 271 272 272 273 274 276 277 277 278 278
285 285 286 287 287 286 285 285 284 283 282 283 282 282 282 282 283 282 281 279 277 275 275 274 274 274 273 272 272 271 271 271 270 269 271 271 271 273 274 275 276 275 276
285 286 285 286 285 285 285 284 283 282 282 281 282 279 280 280 282 282 280 279 278 277 276 275 275 274 274 273 273 271 270 270 269 269 270 270 270 271 272 273 274 273 274
286 285 285 285 284 284 284 282 282 282 282 282 281 281 282 276 280 280 280 279 278 277 278 276 276 275 275 274 273 272 271 272 270 270 269 270 270 271 271 271 272 273 274
286 285 284 284 284 284 283 283 283 282 282 282 282 283 278 280 280 281 280 279 278 278 278 278 277 276 275 274 273 273 271 271 270 269 269 270 270 270 270 271 272 273 273
285 285 284 284 284 284 283 283 283 282 282 281 281 282 275 276 280 280 281 280 280 279 279 279 278 277 276 275 275 274 272 271 271 270 269 269 270 271 270 270 271 271 272
285 285 284 283 284 284 283 283 282 282 281 281 281 281 281 279 279 279 280 280 280 279 278 277 277 276 276 274 274 274 272 272 272 270 268 269 269 270 270 270 270 270 270
285 284 284 283 284 283 282 282 281 279 280 281 281 281 281 282 281 280 280 281 280 279 278 275 275 275 276 275 274 273 272 272 272 270 267 268 269 270 270 270 270 269 269
283 283 283 284 284 284 282 281 280 281 281 281 280 281 281 282 281 281 281 280 278 278 277 274 274 274 273 272 273 272 272 269 269 266 268 268 268 268 268 269 269 270 269
282 283 283 283 284 284 282 282 282 282 282 282 282 282 282 282 282 282 281 280 279 277 277 277 275 273 273 273 273 271 267 266 267 264 268 269 268 269 269 269 268 270 269

GFSGL_sfc_thetae_030.txt.gz
Theta_e
306 305 303 302 302 302 301 300 300 300 299 298 298 299 298 299 299 298 298 297 295 293 293 292 292 293 291 291 291 289 288 287 283 286 287 289 288 288 289 290 290 291 292
303 302 300 301 301 300 299 299 300 299 299 298 298 298 298 297 298 297 295 293 292 292 292 292 291 290 290 290 289 288 287 286 283 282 285 285 285 287 287 287 288 289 291
300 299 299 299 299 298 298 299 299 298 297 298 298 297 295 296 296 294 293 292 292 292 291 291 290 289 288 287 287 286 285 284 284 283 282 284 284 286 285 286 287 288 289
298 298 298 299 299 299 299 298 298 297 297 297 297 295 294 294 293 292 292 291 292 291 291 289 288 286 285 285 284 284 283 282 283 282 281 281 282 284 285 284 283 287 287
297 297 297 299 299 299 298 297 297 297 297 297 295 295 294 293 292 292 292 291 290 289 288 287 286 284 282 282 282 282 281 281 280 280 280 281 281 282 281 284 283 284 286
296 297 297 298 298 297 297 296 296 295 296 295 294 293 292 291 285 284 285 289 288 286 285 285 285 284 283 281 281 281 281 281 280 280 280 279 281 282 283 283 282 282 280
296 295 296 297 296 295 295 294 294 294 295 294 293 293 292 291 283 282 282 287 286 285 285 284 283 283 283 282 281 281 282 282 281 282 280 280 281 283 283 282 282 282 282
294 294 295 295 294 294 294 293 294 294 294 293 293 292 291 289 282 281 281 286 286 285 284 284 284 283 283 281 280 280 282 282 282 282 282 282 283 284 284 284 283 283 284
293 294 294 294 293 293 293 293 293 292 293 292 292 291 290 288 281 281 281 285 285 284 284 284 282 281 280 280 279 279 280 281 282 282 282 282 282 283 284 284 282 281 280
293 293 294 294 293 293 293 292 293 292 291 291 291 291 286 287 281 280 281 285 284 283 284 283 280 279 278 279 278 278 278 279 279 280 281 283 284 284 283 284 283 280 280
293 294 293 293 293 293 293 293 292 291 291 290 288 289 288 287 286 280 280 283 283 282 282 282 282 278 278 277 277 278 278 278 278 279 280 282 283 284 284 285 286 284 281
293 293 292 292 292 291 292 292 292 291 289 288 286 287 288 287 283 282 280 280 281 281 281 282 281 277 277 276 277 276 276 277 279 279 279 279 280 281 283 284 286 286 287
291 291 291 292 291 292 291 291 290 289 288 288 286 286 286 287 286 282 280 279 280 281 281 280 277 276 276 277 276 276 276 278 277 277 277 278 279 281 283 285 286 287 287
290 290 291 290 290 291 290 288 288 288 288 286 286 284 285 285 285 285 284 283 281 281 281 281 278 276 277 277 278 278 278 277 276 277 277 278 280 281 282 283 283 284 286
289 289 290 290 290 290 289 288 288 289 288 286 285 285 285 283 284 284 283 283 283 281 278 280 280 279 278 278 278 278 278 277 276 276 277 277 278 279 280 282 282 283 282
288 288 289 289 289 288 288 287 286 284 284 284 284 284 286 284 283 281 281 281 280 278 278 279 279 279 278 277 277 277 277 276 275 275 276 277 276 277 278 280 281 280 281
287 288 289 287 288 287 287 286 285 286 284 284 284 284 284 284 284 282 282 281 280 278 279 280 279 279 278 278 277 277 276 276 275 275 275 276 276 276 277 278 279 278 279
288 285 288 287 287 287 287 287 287 285 284 285 284 284 284 283 283 283 282 281 280 278 279 280 279 279 279 278 277 277 276 276 276 275 275 275 275 275 276 276 277 276 277
288 288 288 287 288 287 287 286 286 285 284 284 285 283 283 282 283 282 283 282 280 280 281 281 281 280 280 279 278 277 276 276 274 274 275 275 275 274 275 276 276 276 276
289 286 286 287 287 285 285 285 285 285 285 285 284 284 285 282 283 282 283 283 281 281 281 281 281 281 280 280 279 278 277 277 276 275 275 275 275 275 274 274 275 275 276
289 288 286 287 286 286 286 285 285 285 284 285 284 286 284 284 283 283 282 283 282 282 282 281 282 281 281 280 279 278 277 277 276 275 275 275 274 274 275 275 274 275 275
288 288 287 287 287 286 285 286 286 285 284 284 285 286 283 284 284 284 284 284 285 284 284 283 282 282 281 280 280 279 277 276 276 276 275 273 274 275 275 274 274 274 274
288 286 285 286 286 285 284 285 285 285 285 285 285 285 285 284 284 284 285 285 286 285 284 283 282 282 282 281 281 280 278 277 277 276 273 273 274 275 274 274 274 273 273
287 285 284 284 285 286 286 285 285 284 284 285 285 285 285 285 284 284 285 285 285 285 285 283 282 282 282 281 280 280 279 278 277 276 272 272 273 274 274 273 274 273 273
285 284 284 284 284 285 285 285 285 284 284 284 284 284 285 285 285 285 285 285 284 284 284 283 283 282 281 280 280 279 278 274 274 274 274 272 272 271 272 272 272 273 272
285 284 285 285 284 284 284 284 284 284 284 284 285 285 285 285 285 285 285 285 284 284 283 284 282 281 281 280 279 278 276 272 272 269 273 273 272 273 273 272 271 272 272

GFSGL_sfc_thetae_033.txt.gz
Theta_e
308 308 306 304 304 303 302 302 300 301 300 299 298 299 299 298 299 299 298 298 297 295 295 295 293 294 292 292 292 291 290 289 286 288 289 290 289 289 289 290 291 291 291
307 304 303 303 302 302 301 300 300 300 300 298 298 298 298 298 298 297 296 295 294 293 293 292 291 291 290 290 290 288 288 288 286 283 285 286 286 287 288 288 288 288 290
305 303 302 302 301 301 300 300 300 299 298 298 298 297 297 296 295 295 294 293 293 292 292 291 290 289 288 288 287 286 286 286 286 284 283 285 285 286 286 287 287 288 288
302 301 300 300 301 300 300 300 299 299 297 297 297 297 296 295 294 293 293 292 292 292 291 290 289 288 287 285 284 284 284 283 282 282 281 282 284 285 285 284 284 287 286
302 300 300 300 300 300 299 299 299 298 297 297 297 296 295 294 293 292 292 292 290 289 290 289 288 286 284 283 283 282 282 281 280 280 280 281 282 282 282 284 283 284 286
300 299 299 299 298 298 298 298 297 296 296 296 296 295 294 293 285 285 285 289 289 288 287 287 287 287 286 284 284 282 282 280 280 280 280 279 280 281 283 283 283 282 280
298 298 298 297 297 297 296 296 295 295 296 295 295 294 294 293 285 283 283 287 287 287 287 286 285 285 285 284 283 282 282 283 282 282 280 281 281 282 282 281 282 282 282
297 297 296 296 295 296 295 295 295 295 295 294 294 294 293 291 284 283 282 286 288 287 287 286 285 285 283 281 280 280 281 282 283 282 282 281 282 282 282 282 282 283 284
296 295 295 295 294 294 293 294 295 294 294 293 293 293 292 290 284 283 282 286 286 286 286 286 285 283 281 280 279 278 279 280 283 283 282 282 283 284 284 283 282 281 280
294 294 294 295 294 293 294 294 294 294 293 292 292 292 288 290 284 283 282 285 285 285 286 285 282 280 279 278 278 277 277 279 279 279 280 282 283 284 284 284 284 281 281
294 294 294 294 294 294 294 293 293 292 292 292 290 291 291 289 288 283 282 283 284 283 283 283 284 280 279 278 278 277 278 278 278 279 280 281 282 283 283 285 285 284 282
293 293 293 293 293 293 292 292 293 292 291 290 289 289 289 289 286 283 282 281 282 282 282 283 283 280 278 278 278 278 277 277 280 279 279 279 280 280 282 284 286 286 287
292 291 292 293 293 292 291 292 291 291 290 289 288 287 288 289 289 285 283 281 280 281 283 282 280 279 278 279 279 278 277 279 278 277 277 278 280 281 283 284 285 286 286
290 291 292 291 291 292 291 291 290 289 289 288 287 287 287 287 288 288 285 284 282 282 283 283 281 280 279 278 280 281 280 280 277 277 277 279 280 281 281 283 282 283 284
290 290 290 290 291 290 290 291 290 290 289 288 288 288 288 287 286 286 285 285 285 283 280 281 281 281 280 281 281 280 280 280 278 277 277 277 278 278 279 281 281 282 281
288 289 290 290 290 290 289 289 288 286 286 285 285 285 289 286 284 283 283 282 281 281 280 280 281 281 280 279 279 279 280 279 278 277 277 277 276 277 277 279 280 280 279
288 288 289 288 289 288 288 288 286 289 286 285 285 284 284 285 285 285 283 282 282 280 279 280 281 281 281 280 280 279 278 279 277 278 277 277 276 276 277 278 278 278 278
289 286 289 290 290 288 287 287 288 287 286 287 286 285 285 285 284 284 284 283 281 281 280 280 280 281 281 280 280 280 279 279 278 277 277 277 277 276 275 276 277 277 277
290 290 291 291 290 288 288 286 287 286 286 286 288 285 285 284 284 284 284 282 281 281 281 282 283 282 281 281 281 280 279 278 277 277 277 276 277 276 276 275 276 276 276
292 288 287 290 289 288 288 286 286 286 286 286 286 286 287 285 284 283 284 284 283 283 283 282 283 283 283 282 281 281 279 279 278 278 277 277 277 276 276 275 275 274 275
292 291 287 289 289 288 287 287 286 286 286 286 286 287 285 285 285 285 285 285 284 284 284 283 284 284 283 282 281 280 279 279 278 277 277 277 276 275 276 276 276 275 275
291 290 289 289 289 288 287 287 287 286 286 285 286 287 284 285 285 285 286 285 286 286 286 285 284 284 283 282 282 281 280 279 278 278 277 276 275 276 276 276 276 275 275
288 287 287 287 287 286 287 287 286 286 286 286 286 286 286 285 285 285 285 286 286 286 286 286 285 284 284 284 284 282 280 279 279 279 277 275 275 276 275 275 275 275 274
288 287 286 285 285 285 285 285 286 285 286 286 285 285 285 286 285 285 285 286 286 286 286 285 285 284 284 284 283 282 281 281 280 278 275 275 274 275 275 274 274 274 274
286 286 285 285 285 285 285 285 285 285 285 285 285 285 286 285 286 285 286 286 286 285 285 285 285 284 283 283 283 281 281 280 278 278 276 274 274 273 272 273 273 273 274
285 286 286 285 285 285 284 283 283 284 284 284 285 285 285 286 286 286 286 286 286 286 286 285 285 284 283 283 283 282 281 278 275 274 275 275 274 274 274 274 273 273 273

GFSGL_sfc_thetae_039.txt.gz
Theta_e
304 302 301 300 302 300 300 299 298 298 297 295 295 293 293 293 293 291 291 292 290 289 288 288 288 289 288 286 284 283 281 280 277 279 281 281 280 281 283 284 285 284 285
304 302 299 300 301 300 300 299 298 297 297 296 294 293 294 293 291 291 291 290 288 288 287 287 287 288 283 282 280 279 278 278 277 276 277 279 279 280 281 281 284 286 285
304 301 300 301 300 299 298 299 297 296 294 294 294 293 293 293 291 291 290 289 289 288 288 287 286 283 280 279 279 278 278 280 277 276 276 278 279 279 280 281 281 282 285
300 298 299 299 299 299 298 297 295 295 294 294 293 294 294 293 292 292 291 288 286 285 285 284 284 282 280 279 279 277 278 276 276 276 276 276 277 279 279 277 279 280 280
301 299 299 299 299 298 298 297 296 295 294 294 293 293 293 292 291 290 289 286 285 285 285 285 283 285 288 282 279 277 277 276 276 275 275 276 276 277 277 279 277 278 278
299 298 300 299 299 296 295 295 295 294 293 293 293 293 292 291 288 289 286 283 284 283 281 282 282 285 284 285 283 282 280 276 275 274 276 275 276 278 279 276 276 274 274
299 299 299 297 295 295 295 293 293 292 292 292 292 292 291 288 288 288 286 283 282 282 281 281 281 283 281 279 280 280 279 280 279 276 275 276 275 276 276 276 276 276 275
296 296 297 295 294 293 293 292 292 292 291 291 290 290 290 289 288 287 285 281 281 281 281 281 280 279 278 278 277 276 276 277 277 278 276 275 276 277 278 279 278 278 279
294 293 293 293 292 292 292 292 291 291 290 290 290 289 288 287 287 286 283 281 281 281 282 282 281 278 280 280 277 276 275 276 279 280 280 281 282 282 282 281 278 277 275
292 292 293 293 292 292 292 291 291 290 290 290 289 288 288 285 287 286 284 279 280 280 280 280 282 279 280 279 275 274 272 274 276 276 276 277 279 280 282 280 277 276 276
293 293 293 293 292 292 291 290 289 288 287 286 285 285 286 285 284 286 285 280 280 279 279 278 278 281 280 281 280 275 273 276 277 276 275 276 277 278 279 280 279 279 277
292 292 292 292 291 291 289 288 288 287 285 285 283 283 283 284 284 286 286 284 282 277 279 278 278 283 282 281 280 279 280 278 271 272 273 274 274 275 277 278 279 280 281
290 289 289 290 290 289 287 286 286 285 283 283 282 280 282 283 283 286 286 285 284 278 278 279 281 283 282 281 281 281 278 274 271 267 270 271 272 275 277 277 279 279 280
288 288 287 287 287 287 287 286 285 281 280 282 281 281 281 281 282 280 282 283 284 281 278 279 277 278 275 275 276 278 276 274 272 271 269 271 273 273 273 275 275 276 277
287 287 286 286 285 286 286 285 284 283 282 281 280 281 278 277 283 285 283 280 278 279 272 275 278 273 274 276 275 275 275 274 272 269 268 269 272 273 273 274 275 276 273
285 284 282 282 282 284 284 285 286 285 286 286 286 282 281 285 286 287 286 285 284 283 278 273 269 267 270 274 274 273 272 272 272 271 268 270 270 270 272 274 275 273 272
283 283 282 283 282 283 283 282 284 283 286 286 287 286 286 286 286 287 286 286 285 282 273 270 267 268 271 275 276 274 272 272 272 270 269 267 268 271 270 272 271 272 272
284 284 284 283 283 283 283 284 284 282 281 281 283 285 286 286 286 286 286 285 281 281 276 273 272 272 274 276 277 274 272 271 270 269 266 263 262 266 266 270 271 265 271
286 283 283 284 284 284 285 285 285 284 281 281 281 279 280 285 286 286 285 283 279 277 277 277 275 275 275 276 275 274 270 268 266 264 264 264 263 265 265 268 268 267 267
285 282 282 284 284 284 283 286 285 283 283 282 282 280 279 275 280 282 283 283 280 279 277 277 278 277 277 277 278 275 271 268 267 265 265 266 260 262 263 264 265 265 268
281 282 280 282 283 283 283 283 284 284 283 283 283 281 279 282 282 282 281 281 281 280 279 278 278 278 278 279 277 277 276 273 272 271 269 264 259 263 264 264 263 268 268
280 280 280 279 280 281 282 283 283 282 280 278 279 278 279 283 282 282 283 282 282 282 282 281 280 279 279 278 279 276 275 273 271 269 267 264 265 264 263 264 262 262 265
276 276 277 278 279 279 281 283 282 279 276 277 277 280 283 283 281 281 283 284 284 284 283 282 282 281 281 281 281 279 278 276 275 274 270 266 265 263 261 263 263 262 262
276 277 276 276 278 279 280 280 281 279 279 278 278 278 281 282 282 281 282 284 284 284 284 284 283 282 282 282 282 281 280 280 277 276 273 269 267 265 261 262 262 261 260
272 272 272 272 274 274 276 276 277 277 276 275 274 274 275 276 277 279 280 282 284 284 284 284 284 284 283 283 282 281 281 280 278 275 273 270 266 264 261 262 260 263 261
269 270 268 268 269 270 271 272 273 272 272 272 271 270 272 274 274 275 275 275 274 276 283 283 285 285 284 284 283 283 281 280 278 275 274 272 268 263 262 262 261 261 263

GFSGL_sfc_thetae_042.txt.gz
Theta_e
304 302 302 303 302 303 302 300 299 297 297 297 296 293 293 292 292 290 290 291 289 288 288 288 288 287 285 283 282 281 279 278 276 277 278 279 278 278 281 282 283 282 283
302 301 300 301 301 301 300 298 299 297 298 296 293 293 293 293 291 290 289 289 288 287 287 287 286 288 283 282 280 279 278 277 277 275 276 276 277 278 279 279 282 284 282
302 301 301 300 300 299 299 298 296 295 294 293 293 293 293 292 291 290 289 289 288 288 286 284 285 284 281 281 280 278 277 280 277 275 276 277 276 277 278 279 280 279 283
302 301 300 300 299 298 297 295 295 294 292 292 293 293 293 292 291 291 290 289 288 286 285 284 284 283 281 280 279 277 278 276 276 275 276 276 276 278 278 277 278 279 278
301 300 301 300 297 297 296 295 295 293 293 292 292 293 293 292 292 291 290 287 285 284 284 284 284 284 287 283 279 277 277 276 275 275 275 275 276 275 276 277 277 277 277
299 298 299 300 297 296 294 295 295 294 293 292 292 293 292 291 290 290 288 285 285 283 282 282 282 284 285 286 284 283 279 275 274 273 274 273 274 275 276 275 275 274 274
299 299 297 295 294 294 294 293 292 291 291 291 291 291 291 291 289 290 288 284 283 282 281 281 281 283 282 280 281 280 279 279 278 274 273 273 273 275 275 275 275 276 275
296 296 293 292 292 293 293 292 292 292 291 290 290 290 289 290 289 289 287 282 281 281 282 282 280 279 279 278 277 276 277 276 277 277 275 275 275 277 278 279 279 279 279
291 292 292 292 292 293 293 293 292 290 289 288 289 289 288 287 289 288 285 281 281 281 282 282 281 279 280 282 277 276 276 276 278 280 280 281 281 281 281 279 276 275 274
291 293 294 294 294 293 291 289 289 288 288 288 287 287 288 286 288 288 285 281 280 280 280 281 283 280 281 281 276 275 272 274 275 276 276 277 278 278 280 279 277 275 275
293 293 293 292 291 290 289 288 287 286 285 284 284 284 284 284 284 288 287 281 280 280 280 279 279 282 282 281 281 275 273 276 276 276 275 275 276 277 277 278 278 276 275
293 291 290 289 289 289 286 285 285 284 283 283 279 282 282 283 285 286 287 286 282 279 280 281 280 282 282 282 281 280 281 278 272 271 272 273 273 274 275 276 277 278 278
288 287 287 287 287 287 284 284 283 282 280 281 281 280 280 283 284 286 286 286 285 280 281 281 281 282 283 281 282 282 278 274 271 266 271 271 272 273 276 276 277 277 277
286 286 286 285 285 284 284 284 283 279 280 282 281 281 280 280 280 281 282 283 286 283 280 281 280 278 274 275 275 278 276 274 273 272 269 270 271 272 272 273 273 274 275
285 285 284 284 283 283 284 284 283 283 282 282 280 280 278 279 281 284 283 281 281 282 281 278 276 275 274 275 275 275 275 274 273 271 268 268 270 271 271 273 273 274 271
284 283 282 282 281 282 283 283 286 285 285 286 286 282 281 284 285 286 287 286 285 284 279 276 276 275 274 274 273 273 273 272 273 272 268 269 269 268 269 272 273 270 271
283 283 283 282 282 282 283 282 282 285 286 286 286 286 287 286 286 286 286 287 286 284 279 273 276 273 273 273 275 274 274 274 273 272 271 269 267 269 268 269 270 270 270
283 282 281 281 282 282 284 284 284 283 282 284 286 285 286 286 286 286 286 286 283 283 280 276 275 273 273 274 274 274 275 271 271 271 268 265 261 265 265 267 269 264 268
281 281 281 280 280 280 281 282 283 284 284 284 284 281 281 284 285 285 286 284 282 279 280 278 277 276 274 274 274 272 271 270 270 266 267 265 259 264 263 265 265 265 265
280 279 278 279 279 278 279 279 279 281 282 283 283 280 277 273 272 278 279 283 283 281 279 279 279 277 276 275 275 273 270 270 270 268 265 263 259 261 262 262 261 262 267
275 276 275 277 277 278 277 277 278 279 280 282 283 280 276 276 279 282 281 282 283 282 281 280 279 278 278 277 276 276 274 273 274 273 269 268 262 262 264 262 261 264 267
274 275 275 276 276 275 276 278 279 279 281 281 281 276 273 274 280 281 282 283 280 281 282 281 280 279 279 279 278 277 276 275 273 272 270 268 266 265 262 262 261 260 263
273 272 271 272 272 272 273 275 275 274 277 279 279 278 277 276 277 279 281 280 280 284 283 282 282 280 281 280 280 279 276 276 276 274 272 268 266 266 261 261 261 260 260
269 269 268 267 268 268 269 270 271 271 271 272 272 272 273 273 273 275 276 276 275 277 283 284 282 282 282 281 281 281 280 279 279 276 275 272 269 266 263 261 261 259 259
265 266 264 264 265 265 266 267 267 267 268 268 269 270 270 271 270 269 270 271 272 272 274 276 284 284 283 282 281 281 281 281 280 278 277 274 272 269 267 265 260 261 259
265 265 263 263 263 263 263 264 264 265 265 266 267 267 267 269 268 267 268 268 269 271 272 273 275 282 284 283 283 282 281 281 279 278 277 275 272 269 267 266 264 260 262

GFSGL_sfc_thetae_045.txt.gz
Theta_e
304 303 303 303 303 303 301 300 299 298 296 297 297 296 295 293 292 290 289 290 290 288 288 288 287 287 286 284 283 282 280 279 276 277 278 278 277 277 279 279 281 280 281
304 302 303 302 302 300 299 298 297 297 299 298 297 294 293 292 291 290 290 290 288 286 287 286 286 288 284 283 281 280 279 278 277 275 276 276 276 277 277 277 280 282 281
303 303 303 302 301 300 299 298 298 296 294 293 292 293 293 292 291 290 289 288 287 287 287 286 285 284 281 281 280 279 278 279 277 275 275 276 276 276 277 278 278 279 281
302 301 301 299 300 300 298 296 295 295 293 293 293 293 293 293 291 290 289 287 287 287 286 284 284 283 282 280 279 278 278 276 276 275 275 275 275 277 276 276 276 278 278
301 302 299 298 298 297 296 293 294 294 293 293 293 293 293 292 292 290 289 287 286 284 284 284 283 284 285 282 280 277 276 275 275 274 274 274 274 274 274 275 275 275 277
301 298 299 299 297 295 295 294 293 293 293 293 293 292 291 291 290 291 289 286 285 284 283 282 283 285 286 287 286 283 279 275 274 272 273 272 272 273 274 273 274 274 274
298 298 296 295 293 293 294 293 293 293 294 293 291 291 290 289 290 291 290 285 283 282 281 281 281 283 284 282 284 283 281 281 278 274 272 272 272 274 274 274 275 276 276
294 293 293 292 292 293 293 293 293 293 291 288 288 287 287 288 289 290 289 283 281 281 281 282 280 281 281 280 278 277 277 277 277 276 275 275 275 276 276 278 278 278 277
292 292 293 294 293 294 293 293 292 290 287 286 287 286 286 286 288 289 287 281 280 281 282 281 282 280 282 284 278 277 276 277 279 280 280 281 281 281 280 275 274 274 272
292 293 294 294 294 293 292 290 288 287 286 286 285 285 286 284 287 288 287 281 280 281 280 281 285 282 282 283 277 275 273 276 275 275 276 277 278 277 279 277 275 273 273
295 296 295 293 291 290 287 286 285 284 283 282 283 283 283 283 284 288 288 282 281 281 281 281 281 284 283 283 282 276 275 277 276 275 276 275 276 276 277 277 276 275 273
292 290 288 287 287 287 285 284 284 282 281 281 279 281 281 282 285 286 288 287 284 280 281 281 281 283 284 283 281 281 282 278 274 273 272 273 272 273 275 276 276 277 277
287 286 286 286 286 285 283 283 282 281 280 281 281 281 282 282 281 286 287 287 286 282 282 282 283 283 284 282 283 282 279 276 273 268 271 272 271 273 275 275 276 276 276
285 284 284 284 284 283 283 282 281 280 280 282 282 282 282 281 280 280 281 281 285 285 281 281 282 281 280 279 278 280 276 275 274 273 271 270 271 271 271 272 270 272 273
284 283 283 283 282 283 283 282 283 283 283 283 283 282 282 281 282 283 282 279 279 281 283 281 279 278 277 278 277 276 275 274 272 270 269 269 270 271 270 271 272 272 268
283 282 281 281 281 282 282 282 285 285 286 286 286 284 285 285 285 286 286 286 286 285 281 279 278 277 276 277 276 276 274 272 274 272 270 270 270 269 268 270 271 268 268
280 281 280 280 280 280 280 280 278 281 285 285 286 286 286 286 287 287 285 286 286 285 281 279 277 278 277 277 276 275 274 274 274 273 271 270 270 269 267 268 268 268 267
279 279 278 278 278 278 277 277 277 277 277 279 283 285 286 286 286 286 286 285 283 283 282 281 278 278 277 277 276 275 274 273 271 270 268 268 266 266 265 267 267 263 266
277 276 276 275 276 276 276 276 276 276 277 277 279 281 281 284 284 285 285 282 282 282 282 281 281 279 278 277 276 275 274 272 268 265 270 269 265 266 264 265 264 264 264
275 274 274 275 275 275 276 275 275 275 276 277 277 278 280 272 279 271 271 272 279 282 282 279 280 279 278 277 276 274 272 270 268 268 268 270 266 264 265 263 259 260 266
273 274 272 273 273 272 272 272 273 274 272 272 273 277 278 280 278 278 280 281 281 281 282 281 279 280 279 278 276 275 274 272 272 271 271 270 266 263 265 263 260 263 266
271 271 270 269 270 269 268 270 270 270 270 270 271 272 272 273 274 275 277 275 277 281 283 280 281 281 280 279 278 276 276 274 273 273 272 271 269 268 264 261 260 260 262
268 267 266 267 266 265 266 266 267 266 266 267 268 269 270 270 270 269 270 270 272 272 273 275 280 282 281 280 280 280 278 277 276 275 273 271 270 268 262 262 261 260 260
265 264 264 263 263 263 262 262 264 263 264 264 265 267 267 268 268 267 268 268 268 269 270 272 273 275 281 280 281 281 280 280 279 277 276 273 272 269 267 263 263 259 258
259 258 257 260 259 259 259 261 260 261 261 261 263 264 265 266 266 266 266 266 266 266 267 269 271 272 274 278 281 281 281 280 280 278 277 275 273 271 270 268 263 262 260
261 260 259 257 257 257 257 259 258 259 259 260 261 262 262 264 264 264 265 265 265 265 266 267 269 271 271 276 282 281 281 281 280 279 278 276 274 272 269 268 266 265 265

GFSGL_sfc_thetae_048.txt.gz
Theta_e
310 308 306 306 306 307 306 304 302 299 299 297 296 296 296 295 294 292 289 290 289 288 288 287 287 287 286 286 285 284 283 282 279 280 280 280 279 279 280 280 281 281 282
306 304 305 305 306 305 303 300 300 299 297 297 298 296 294 293 292 290 291 290 289 288 287 286 286 287 284 283 282 281 280 280 278 276 277 278 278 279 279 278 280 281 282
306 304 304 304 303 300 299 299 298 297 297 296 295 294 293 292 292 292 291 290 288 287 287 286 285 285 283 281 281 280 279 280 278 277 276 278 278 278 278 279 279 280 281
304 304 302 301 301 299 299 298 297 296 294 294 294 293 293 294 293 291 290 288 287 287 286 285 285 283 282 281 281 280 279 277 277 276 276 276 276 277 277 276 276 278 278
301 300 299 300 298 296 295 295 295 294 293 293 294 295 294 293 292 290 289 287 286 285 285 284 283 284 286 284 281 280 278 276 276 276 275 275 275 274 274 276 275 276 277
299 297 297 297 296 294 293 293 293 293 294 295 294 294 293 292 291 291 289 286 286 284 284 283 283 287 287 288 288 286 281 277 276 274 274 274 273 274 275 274 274 274 273
296 296 294 294 293 293 294 294 294 294 295 294 294 292 289 289 290 291 290 286 285 284 283 282 282 283 285 282 284 286 284 283 278 276 274 274 273 275 275 274 276 276 276
292 293 293 294 293 294 294 294 294 294 293 292 289 288 286 287 289 289 289 286 284 283 282 282 281 281 281 281 281 280 279 279 279 278 277 275 275 277 276 277 277 277 277
292 293 294 294 294 294 294 294 294 292 289 287 286 286 285 285 288 288 287 284 283 282 282 282 282 282 283 285 280 278 278 278 281 282 281 280 281 281 281 277 274 274 272
292 293 294 295 295 294 292 290 288 286 286 285 284 284 285 284 286 288 287 282 281 282 281 281 285 283 284 284 281 278 275 277 277 276 276 278 279 278 279 278 276 273 273
295 294 293 292 290 289 287 286 285 284 283 282 283 282 283 283 284 287 288 283 282 282 282 281 281 284 285 285 284 278 277 278 277 276 276 276 277 277 277 278 277 276 273
290 289 287 287 286 286 284 283 283 282 281 281 279 281 282 283 285 286 287 287 285 281 281 282 282 284 285 285 284 282 281 279 276 275 274 274 275 275 276 277 277 278 278
285 284 284 284 284 283 282 282 282 281 280 280 281 281 282 284 281 285 286 286 286 283 283 283 284 284 285 284 284 283 281 279 276 274 274 274 275 276 277 276 277 277 277
283 283 282 282 282 282 282 282 280 279 279 281 282 282 282 283 283 281 281 282 284 284 282 284 281 281 281 283 282 283 281 279 277 276 275 275 273 273 273 274 273 274 274
282 282 281 281 280 280 280 280 281 280 280 281 281 281 281 281 283 285 285 284 282 282 282 282 282 280 280 280 279 279 280 278 275 275 273 272 272 272 273 274 273 273 271
280 280 279 278 277 278 278 278 281 281 282 282 283 281 282 284 285 286 287 287 286 286 281 281 280 279 278 279 278 278 278 277 277 275 273 273 272 272 272 272 273 271 270
278 278 277 277 277 276 276 276 274 277 279 280 280 281 282 283 283 285 286 286 286 285 282 281 280 280 279 278 278 278 277 277 277 275 274 272 272 272 271 271 271 270 270
276 275 274 274 274 274 273 275 274 274 274 274 277 279 279 279 282 283 284 285 283 283 283 282 281 280 280 279 278 278 278 277 275 274 272 272 270 271 270 270 271 268 269
275 273 274 272 273 273 273 272 272 272 273 272 272 273 274 276 278 282 283 281 281 280 280 280 282 282 281 281 279 278 278 276 274 271 272 270 268 270 268 269 269 266 266
274 273 272 272 271 270 270 269 271 270 270 270 269 270 271 271 271 271 274 275 276 278 280 280 281 282 282 279 279 278 277 275 273 271 270 270 268 268 269 268 266 267 270
271 271 269 269 269 268 267 268 267 268 266 267 267 268 268 269 270 269 270 270 269 271 272 272 279 282 280 279 279 277 276 275 274 273 272 271 269 269 268 269 267 267 269
268 268 267 267 267 265 265 266 265 264 264 264 264 266 266 266 268 268 268 268 268 269 270 271 272 274 278 280 279 278 276 275 274 274 273 272 271 271 270 268 266 266 268
266 263 263 264 263 261 260 261 262 261 262 261 262 263 264 264 265 265 266 266 267 267 268 268 269 271 273 273 278 279 278 277 277 276 274 272 272 272 270 268 267 266 266
263 258 262 259 257 259 254 254 256 258 260 259 259 260 261 262 263 263 264 265 265 266 266 266 267 268 269 271 272 276 281 280 280 277 276 274 273 272 271 269 268 267 266
256 254 254 256 254 252 250 253 252 252 255 257 257 259 260 260 261 261 262 263 264 264 264 265 266 266 267 268 270 272 277 281 280 279 277 276 274 272 272 271 269 268 266
260 257 255 253 251 250 249 249 251 250 253 255 256 257 258 258 260 260 260 261 261 262 263 264 264 264 265 267 270 271 272 280 280 279 278 277 275 273 272 271 269 269 268

GFSGL_sfc_thetae_051.txt.gz
Theta_e
324 324 322 319 318 316 312 309 306 303 301 301 301 299 297 298 297 296 295 296 297 297 296 296 296 296 295 295 295 294 292 292 288 289 289 289 288 287 287 288 286 285 286
322 319 318 315 312 310 309 306 304 302 302 301 298 297 298 297 296 294 296 297 296 296 296 295 295 294 294 295 294 292 291 291 288 285 287 286 286 287 287 285 284 284 285
316 314 312 310 310 308 305 303 304 302 299 298 298 297 297 297 296 297 297 297 297 296 296 295 294 294 293 293 292 291 290 288 288 285 285 286 285 286 285 284 283 284 284
309 309 307 307 306 304 302 301 301 301 300 300 300 297 297 296 297 297 298 297 296 295 296 295 295 294 293 293 292 290 289 287 287 285 284 284 285 285 283 281 281 283 282
306 305 304 304 302 300 300 297 298 297 299 296 297 296 297 296 295 296 297 296 296 295 295 294 294 294 292 292 290 290 288 287 285 284 284 284 283 282 281 281 280 281 282
304 301 299 298 297 295 295 296 297 295 298 297 296 297 295 295 293 292 292 295 295 294 294 295 294 291 290 289 288 287 287 286 285 284 283 282 282 282 281 280 280 279 277
299 298 296 295 294 295 296 296 298 297 297 296 295 295 296 297 291 290 290 293 294 294 294 293 293 290 289 290 287 287 287 286 283 286 283 283 282 282 280 279 280 279 279
296 295 296 296 295 297 297 296 295 295 295 295 296 297 295 293 289 289 289 293 293 293 293 293 292 292 291 289 288 288 287 288 286 284 285 284 284 283 281 281 281 281 281
295 296 296 296 296 295 294 295 295 296 296 295 294 293 292 292 289 288 288 292 292 292 292 292 291 291 289 287 287 286 286 286 285 284 283 283 282 281 282 282 280 279 278
296 296 297 297 295 293 293 294 294 293 291 291 290 291 290 290 289 288 288 291 290 290 291 291 287 288 286 285 287 286 284 285 284 283 283 283 282 283 281 282 281 278 278
295 293 292 291 291 291 291 291 290 290 289 289 288 290 290 290 290 288 288 289 290 289 289 289 290 286 286 286 286 287 285 286 284 283 283 282 281 282 282 283 282 281 278
291 289 289 289 289 289 289 289 289 289 288 287 287 287 288 289 287 288 287 287 287 288 288 290 290 287 285 286 286 286 284 283 284 283 282 281 281 281 282 283 283 282 282
289 288 287 287 286 286 285 285 284 284 284 283 283 283 284 286 286 286 286 285 285 286 289 289 287 286 285 285 285 285 284 283 283 282 281 281 282 283 283 282 281 282 281
286 285 284 283 283 283 283 283 282 282 282 281 281 281 281 282 284 285 285 284 286 287 286 287 286 285 285 286 285 285 285 285 283 282 282 282 283 281 281 282 280 280 279
283 282 281 281 281 281 281 281 281 282 281 280 280 280 280 280 282 282 283 284 285 285 285 285 285 284 283 284 284 284 285 285 283 282 282 281 280 280 280 281 280 279 277
280 280 279 280 280 280 279 279 280 279 279 280 279 279 280 279 279 280 281 283 284 284 284 283 284 284 283 283 283 282 283 283 283 282 282 281 280 280 280 280 279 279 277
278 278 278 278 278 278 277 277 276 278 278 278 278 277 277 276 277 279 279 280 284 284 283 283 284 284 284 283 283 282 281 283 283 282 281 281 281 280 279 279 279 278 277
277 275 277 277 277 276 276 275 275 274 274 275 276 275 274 275 276 277 277 277 276 277 280 282 284 285 285 284 283 282 282 283 282 281 281 281 281 280 279 278 278 277 277
276 276 275 275 275 274 274 273 274 273 272 272 273 273 272 272 274 274 274 273 272 272 274 274 275 279 282 283 284 284 284 283 282 281 281 281 280 279 279 279 279 275 274
275 273 273 273 273 272 272 271 271 271 270 270 270 269 270 270 270 271 272 271 271 271 271 271 273 274 276 283 284 284 283 283 282 281 280 280 280 279 279 278 278 277 276
273 272 270 272 271 270 269 269 269 269 268 268 268 268 266 267 268 269 269 269 269 270 269 270 271 272 273 276 276 283 283 282 281 280 280 280 279 278 279 279 279 277 277
271 270 270 269 269 268 267 267 267 267 266 266 266 267 265 267 267 267 268 268 268 269 269 269 269 269 270 272 273 275 279 281 281 280 280 279 278 279 279 278 278 277 276
269 267 267 267 266 265 265 265 265 265 264 265 265 264 265 265 265 265 266 266 266 267 268 268 268 269 270 270 271 273 274 276 281 281 279 279 278 279 278 278 277 276 276
267 266 266 265 264 264 263 262 263 262 262 263 263 263 263 263 264 263 264 265 265 265 266 266 266 267 268 268 270 271 274 274 273 282 280 280 279 278 278 278 277 276 275
266 265 264 264 263 262 261 261 261 261 261 261 261 262 262 262 263 263 263 263 263 263 263 264 266 266 266 266 267 269 271 270 272 277 281 280 280 278 278 278 277 276 275
266 264 264 263 263 261 261 260 259 259 259 260 260 260 260 261 261 262 262 262 262 261 262 264 264 264 265 267 268 268 267 269 271 272 282 281 280 278 278 277 276 276 274

GFSGL_sfc_thetae_057.txt.gz
Theta_e
332 333 331 329 329 329 326 325 323 319 313 309 306 305 303 303 301 300 298 297 297 298 297 299 303 303 302 301 301 299 297 296 293 295 296 298 298 297 296 296 295 294 294
333 332 330 329 325 323 321 318 315 311 308 306 306 304 302 300 300 299 297 296 296 296 298 302 301 300 301 301 300 299 298 298 296 293 296 296 296 297 297 295 293 292 292
331 323 321 318 316 313 310 308 307 305 304 305 302 300 300 301 300 299 297 297 298 300 302 301 300 300 299 300 300 299 299 297 297 295 294 296 295 295 294 294 292 293 291
323 318 313 312 310 308 306 305 304 304 303 302 301 300 299 297 298 297 298 298 300 300 300 300 301 300 300 300 299 299 298 297 296 294 294 293 293 294 293 290 290 292 290
312 310 309 308 308 308 307 305 304 303 301 301 301 300 299 298 298 298 298 298 298 299 299 301 301 300 297 296 297 298 298 296 295 293 292 292 291 290 289 290 289 289 289
309 307 307 308 309 309 308 306 305 303 302 301 299 298 296 297 294 293 294 297 299 299 298 298 299 297 297 293 293 292 294 295 294 292 292 290 291 290 291 289 288 286 283
308 308 308 308 306 305 305 304 303 302 302 301 298 299 299 299 294 294 292 298 296 296 296 297 296 296 295 297 294 290 291 290 288 293 291 292 290 291 291 288 287 286 285
307 305 305 305 304 304 303 303 303 303 302 302 301 301 300 300 294 291 289 294 294 294 295 295 296 296 297 295 295 295 295 295 294 292 291 292 293 293 291 290 288 286 286
305 305 305 304 302 303 302 301 302 300 300 300 299 298 297 297 291 289 290 293 293 293 294 294 294 295 292 291 291 291 292 293 293 291 291 291 287 285 285 288 285 284 283
304 303 303 303 303 302 301 300 299 298 296 296 295 295 292 295 288 288 288 289 287 288 289 289 288 288 287 288 290 290 289 290 292 292 291 290 287 287 283 286 285 283 282
303 303 301 300 300 299 298 297 296 295 295 295 293 293 292 291 290 287 287 286 286 285 285 287 288 286 286 287 286 287 287 290 289 291 291 291 290 289 289 287 286 284 283
300 299 298 297 295 296 295 294 293 292 291 290 289 289 290 290 287 285 283 283 283 283 283 285 286 286 285 285 285 286 286 285 288 288 288 288 287 287 288 288 287 287 287
297 295 294 293 292 292 291 290 290 289 288 287 286 286 286 287 287 284 282 281 282 283 283 284 283 284 285 285 286 285 285 286 285 284 286 287 288 289 288 287 288 288 287
293 292 291 290 289 289 289 288 287 287 285 285 284 284 284 284 284 282 281 281 281 281 281 283 282 282 284 284 285 287 289 286 285 285 286 287 289 287 287 287 285 285 284
290 289 288 287 288 287 286 286 285 283 282 282 283 282 281 280 280 278 278 279 280 279 280 282 284 284 284 285 286 288 288 288 285 286 287 287 286 286 286 286 285 284 282
287 287 287 287 286 286 285 284 280 280 279 279 278 278 279 278 277 277 277 278 278 279 279 280 280 280 280 280 282 283 287 286 286 286 287 286 285 285 285 285 284 283 281
286 285 284 285 285 284 284 283 283 280 279 279 278 276 276 275 276 276 277 277 278 278 278 278 278 278 278 278 280 280 281 284 286 285 285 285 285 285 284 283 283 283 281
283 281 284 284 284 283 283 282 282 281 280 281 279 277 276 275 275 276 276 277 278 278 277 276 276 276 276 276 277 278 279 281 282 285 285 285 285 285 284 283 283 282 281
283 283 283 283 282 280 281 281 281 280 279 279 279 279 278 275 275 276 277 277 275 275 275 275 275 275 275 275 276 276 277 278 280 280 285 285 285 285 284 284 283 282 281
279 277 279 281 280 280 280 279 279 278 278 278 277 277 277 273 273 275 276 275 275 274 274 273 273 274 274 274 275 276 275 276 277 279 281 285 285 285 284 283 283 282 281
281 278 275 279 279 278 278 277 277 276 276 276 276 276 269 271 272 274 274 274 273 273 272 272 272 273 273 273 273 274 273 273 275 276 278 279 284 283 284 284 283 282 281
278 277 277 277 277 276 275 275 275 275 275 274 274 274 272 273 273 273 273 273 272 272 273 272 271 271 272 272 272 272 272 272 273 274 275 275 277 281 284 283 282 282 281
276 275 275 275 275 271 274 274 274 274 273 273 273 273 273 272 272 271 271 271 271 271 271 270 270 270 271 271 272 271 271 271 272 273 272 273 274 276 282 282 282 281 281
275 275 274 274 274 272 273 272 273 271 271 271 272 272 271 271 271 270 270 270 270 270 270 270 269 268 269 270 271 271 271 272 272 272 272 271 272 274 276 282 282 281 281
274 274 273 272 272 272 271 272 271 271 271 271 271 270 270 270 270 270 269 269 268 268 268 268 268 269 269 268 269 269 271 271 270 270 270 271 272 272 274 281 282 281 281
273 272 271 272 271 271 270 270 270 270 269 269 269 269 269 268 268 268 268 267 267 266 266 268 268 267 268 269 270 270 270 270 269 269 271 271 271 273 275 281 282 281 280

GFSGL_sfc_thetae_060.txt.gz
Theta_e
331 330 328 329 330 326 325 323 322 317 315 313 309 305 305 303 302 300 299 297 296 297 297 297 297 299 300 298 297 297 294 293 288 289 291 292 291 291 292 292 293 290 290
331 330 328 326 325 322 320 319 316 312 310 308 305 304 303 300 300 298 297 296 296 296 296 296 298 302 299 299 297 294 293 292 290 288 290 290 290 291 291 289 292 292 289
327 326 322 318 314 311 309 307 306 306 305 305 304 301 300 300 299 298 297 297 296 296 297 298 300 299 297 297 297 295 293 296 292 291 290 290 290 289 288 289 289 288 291
321 318 313 311 308 306 306 305 305 304 302 301 301 300 300 299 298 298 297 297 297 298 299 298 298 298 297 296 295 293 294 292 292 291 290 289 288 289 288 285 285 286 285
313 310 308 307 308 306 304 304 303 302 301 300 299 299 298 298 297 297 298 298 297 297 298 299 298 298 297 296 296 292 291 291 291 289 288 288 286 285 285 287 286 285 284
309 308 308 308 307 306 304 302 301 301 301 300 298 297 297 297 294 294 295 296 297 297 295 293 294 295 295 293 292 292 292 291 289 289 289 287 287 287 287 285 285 284 280
307 307 308 309 306 305 305 303 302 300 300 298 296 297 297 297 293 293 292 295 293 291 291 291 292 294 292 293 292 291 290 290 287 289 287 288 287 288 289 286 284 284 283
308 307 306 305 304 303 302 301 301 301 299 299 298 298 298 298 292 290 289 289 290 290 290 290 289 288 289 288 286 285 286 288 290 290 287 288 288 289 289 287 287 284 281
304 304 304 304 302 302 301 301 300 300 299 299 299 297 293 288 288 287 288 287 287 286 288 287 287 285 287 288 284 283 284 286 289 290 291 290 290 291 289 287 283 279 275
304 304 303 303 303 300 300 300 300 299 296 294 294 294 291 286 287 286 286 283 282 281 282 283 285 285 286 286 283 282 281 281 282 284 285 287 289 287 287 286 284 282 279
304 303 303 302 301 300 298 296 295 293 294 290 288 288 289 288 284 284 284 280 279 279 279 280 281 284 284 284 284 281 281 283 283 283 283 284 286 286 285 284 283 283 281
302 300 299 298 297 296 294 293 292 290 288 286 284 284 285 285 284 283 282 281 281 279 279 279 280 282 283 283 283 284 285 283 283 283 283 282 283 286 287 285 284 283 283
298 296 295 294 294 293 290 289 287 287 285 283 282 282 282 282 282 282 281 280 280 278 279 280 280 281 282 282 284 285 283 283 282 283 283 283 284 287 287 285 285 283 283
294 293 292 289 288 288 287 287 286 284 282 282 282 281 280 280 279 278 277 277 279 278 278 277 278 279 279 280 280 281 282 283 282 284 284 284 286 285 285 285 283 282 280
292 290 288 287 287 286 283 283 282 279 280 280 280 279 276 275 276 276 276 276 276 277 275 276 277 277 277 277 277 278 279 279 279 283 284 284 285 284 284 285 283 282 280
288 287 286 285 284 285 282 280 281 280 280 279 279 277 277 277 277 277 277 278 278 278 275 274 273 273 273 274 274 275 275 276 278 279 282 284 283 282 283 284 283 280 280
285 285 284 284 284 282 282 282 277 278 280 280 279 277 277 275 276 276 276 277 278 278 272 272 270 271 272 273 273 274 274 275 277 277 278 281 280 280 280 282 282 281 280
283 284 284 283 282 282 281 281 280 280 278 277 279 278 277 276 276 276 277 277 274 275 273 272 270 271 272 272 272 272 273 274 274 274 276 277 281 278 277 281 281 281 280
283 283 283 281 280 279 280 280 280 278 278 278 278 277 275 275 275 276 277 273 269 271 272 272 270 271 270 271 271 271 272 272 272 272 274 275 275 281 282 281 282 281 281
279 279 281 280 279 279 279 278 278 278 277 277 276 275 274 271 267 269 270 268 268 270 270 270 270 270 270 270 270 270 270 270 271 271 272 273 274 274 280 277 280 282 280
277 276 276 278 278 277 277 277 277 276 275 275 274 270 267 269 268 271 270 269 269 268 267 269 269 268 269 268 269 268 268 268 269 271 271 271 271 271 274 276 281 282 281
277 277 277 277 276 276 275 275 275 274 274 273 273 273 270 269 271 270 269 267 266 267 268 268 267 268 268 268 267 266 267 267 268 269 269 270 270 270 271 273 277 281 280
276 275 275 275 275 271 273 274 273 273 273 272 271 271 271 270 269 268 267 265 266 265 266 267 266 267 267 266 267 268 267 267 267 268 268 268 268 269 269 270 272 280 279
275 274 274 274 274 271 272 273 272 271 271 270 270 270 270 268 266 265 265 265 264 263 264 266 265 264 266 267 267 268 268 268 268 269 269 267 267 267 269 270 271 275 279
274 274 273 273 272 272 271 271 271 270 270 270 269 269 268 268 268 266 264 264 263 264 264 263 264 266 265 265 265 266 268 269 268 268 268 267 267 267 268 269 270 272 279
273 272 272 272 271 271 270 269 269 269 268 268 268 267 267 267 266 264 265 263 265 262 262 264 264 264 264 266 267 268 268 268 268 268 269 269 268 267 268 269 271 272 279

GFSGL_sfc_thetae_063.txt.gz
Theta_e
322 323 323 323 323 321 323 323 319 316 316 314 310 307 306 305 303 301 299 298 298 298 298 297 298 298 298 299 297 296 295 294 291 290 289 290 289 289 291 292 292 292 292
324 324 324 323 322 320 320 319 317 313 312 309 306 305 304 302 300 299 298 297 297 296 297 297 296 298 299 299 298 296 295 294 293 290 289 288 288 290 290 289 291 293 290
325 323 321 318 315 312 309 310 309 308 306 305 304 302 301 300 299 298 297 297 297 297 297 297 298 299 297 296 295 295 295 296 291 290 291 288 288 291 291 290 290 289 290
318 316 312 310 307 306 307 305 305 304 303 302 301 301 300 299 298 298 297 296 296 297 298 298 298 295 293 294 295 291 292 289 289 289 288 287 287 289 288 287 285 285 286
311 309 306 306 306 305 303 303 302 301 301 300 300 299 299 298 298 297 297 296 297 297 297 298 296 296 296 295 295 292 290 290 288 288 287 288 285 283 283 286 284 286 285
308 306 305 304 303 303 302 301 300 300 300 299 298 297 296 297 293 294 296 296 296 296 292 290 290 292 291 290 288 288 287 284 282 282 285 285 286 284 283 284 286 285 284
307 307 306 305 303 302 301 300 300 299 298 295 293 294 294 295 293 294 292 293 292 288 287 287 288 288 287 286 286 286 285 287 284 283 283 283 284 285 287 285 283 286 285
307 307 306 305 303 302 301 298 296 295 294 293 293 294 294 296 291 291 289 287 286 285 285 284 283 283 284 285 283 282 282 283 284 285 284 284 285 288 287 287 287 286 287
304 303 303 302 299 299 298 298 299 298 296 295 296 291 286 285 287 287 286 283 283 282 283 282 282 281 285 285 281 279 279 280 284 286 286 286 286 287 287 286 285 285 282
302 301 301 301 300 300 299 299 298 296 295 292 290 287 286 284 286 286 283 280 278 278 279 281 282 282 283 283 280 279 278 279 281 281 282 283 285 284 286 286 286 284 282
301 301 301 300 300 300 297 294 292 290 288 285 285 285 284 283 283 284 282 278 278 278 278 278 278 281 281 282 283 280 280 283 283 283 283 283 284 284 285 285 285 286 283
301 300 298 299 298 295 291 289 289 287 284 282 282 281 281 280 282 282 281 280 280 278 277 277 278 280 281 282 281 282 282 281 281 281 281 282 282 283 283 286 286 286 286
297 296 294 293 292 290 287 286 285 284 282 281 281 280 279 279 277 279 279 279 279 277 278 278 279 280 280 279 280 280 278 278 277 277 278 279 283 284 285 286 286 285 285
293 291 289 287 286 285 286 285 283 281 279 280 280 278 277 276 275 275 276 274 277 277 277 276 276 278 276 276 276 277 276 275 275 276 276 278 283 283 284 285 284 283 280
290 287 286 285 283 281 282 281 279 278 280 279 277 278 274 271 275 275 276 276 272 277 273 273 274 274 274 274 274 275 274 274 273 274 275 276 277 282 284 284 283 282 279
285 284 283 283 282 281 280 278 280 280 281 281 280 277 277 278 277 277 277 277 278 278 273 269 265 263 267 271 271 271 272 272 273 273 273 274 275 276 281 283 283 281 280
283 284 282 281 281 280 279 277 276 279 280 280 279 278 278 277 276 276 277 277 278 276 269 268 263 262 265 271 270 270 269 271 272 272 271 272 273 276 275 280 281 281 280
282 283 282 281 281 281 280 280 278 277 276 276 279 278 278 277 276 276 277 277 272 273 272 269 266 266 268 269 269 269 269 269 270 270 269 270 272 273 272 273 279 279 279
282 280 279 279 279 279 279 279 279 278 278 277 277 277 276 276 275 275 276 270 268 269 270 270 267 267 267 268 263 265 264 266 267 268 268 269 270 271 270 272 273 280 279
280 280 279 278 279 278 278 278 278 277 277 276 275 274 272 270 267 265 265 263 264 267 267 268 268 268 263 264 260 261 266 264 266 266 266 268 268 270 269 270 271 272 278
277 278 278 278 277 277 276 276 276 275 275 274 272 270 270 269 267 266 269 266 266 265 262 264 263 259 260 261 266 264 263 263 265 265 266 266 267 267 269 269 269 271 273
277 277 277 276 276 275 274 274 274 273 273 273 272 271 270 267 268 270 268 264 261 262 262 261 259 261 261 265 264 262 264 264 264 265 264 265 266 267 267 267 267 269 271
275 275 275 274 274 272 272 273 272 271 271 270 270 270 270 267 267 266 264 260 262 261 259 259 256 261 262 260 261 266 265 264 265 265 265 265 266 266 266 266 267 268 269
274 273 273 273 272 271 270 270 270 270 270 268 267 267 267 267 264 262 260 259 258 255 253 257 259 261 263 264 263 264 265 266 266 267 267 265 265 266 266 266 267 267 268
273 272 271 271 270 270 269 269 268 267 266 266 265 265 266 263 264 260 257 256 256 254 256 256 257 259 260 260 262 263 265 267 267 267 267 266 265 265 266 266 267 267 268
272 271 270 270 269 267 266 264 264 264 264 264 263 261 261 261 260 255 255 255 258 256 255 255 258 259 260 262 264 266 265 265 265 266 266 266 266 266 267 266 266 267 268

GFSGL_sfc_thetae_066.txt.gz
Theta_e
317 317 317 319 321 320 320 320 319 319 321 319 315 311 309 308 306 304 302 300 299 299 299 299 298 299 298 298 298 298 295 294 292 294 292 290 288 289 291 291 292 291 293
320 320 319 320 321 322 322 320 319 318 314 314 312 309 307 305 303 301 299 299 298 298 297 297 298 299 297 298 297 297 296 294 293 291 293 287 288 289 290 290 292 293 291
324 322 321 321 320 320 319 318 317 313 310 308 308 305 303 302 301 300 299 298 298 298 297 297 297 298 298 296 294 292 293 296 293 289 290 289 288 288 288 289 290 288 291
319 321 320 322 322 320 314 311 309 309 306 305 305 303 301 300 299 299 298 298 297 297 297 297 298 297 293 291 291 289 289 286 287 286 286 287 285 286 286 285 287 285 287
316 317 311 310 311 310 308 307 306 305 304 303 301 300 299 299 299 298 297 296 296 297 297 297 296 294 292 289 286 283 282 281 281 281 281 282 283 282 282 284 284 285 287
310 308 307 307 306 306 305 303 302 301 301 300 299 298 298 298 293 294 295 297 297 296 293 289 288 287 287 288 287 287 285 280 279 278 279 280 281 282 283 284 285 285 283
308 307 306 305 303 303 302 302 300 299 299 297 297 297 296 295 293 294 293 294 291 287 284 283 285 285 284 283 283 283 282 283 282 279 278 279 279 280 282 282 283 283 283
306 306 305 303 303 302 301 299 298 297 296 296 294 294 294 295 292 290 288 285 283 283 282 281 281 280 282 281 280 279 279 279 280 281 280 281 281 282 281 282 281 282 282
305 304 304 303 301 300 299 297 296 295 293 293 292 289 287 290 289 287 285 282 281 280 281 281 281 280 282 283 280 278 278 280 283 285 285 286 286 286 286 284 281 280 279
304 304 303 301 299 298 298 296 295 295 294 293 288 287 286 285 287 286 282 279 277 278 279 280 281 280 281 282 279 278 278 278 279 281 282 283 284 284 285 284 283 280 281
302 301 299 299 298 298 297 296 293 290 289 285 283 283 283 283 283 284 282 278 278 278 278 277 277 280 281 282 282 279 278 278 279 277 278 279 280 281 283 284 284 283 281
300 299 298 299 299 299 293 290 288 286 284 282 281 279 279 280 283 282 282 280 279 278 277 277 277 280 281 281 279 279 279 278 275 274 276 276 276 277 281 284 285 285 285
298 296 295 293 292 291 289 287 285 284 282 281 280 278 277 278 278 280 280 279 278 277 278 278 278 279 280 278 278 278 276 275 273 272 273 274 275 277 279 282 285 286 286
293 290 290 288 285 285 285 285 283 281 281 281 280 278 277 276 275 276 276 276 277 277 277 277 276 277 275 276 276 276 275 274 273 272 272 273 274 275 276 278 281 284 283
288 287 285 284 283 281 279 280 280 280 281 280 279 279 276 275 276 277 277 277 276 277 273 273 274 274 273 273 274 273 273 272 271 271 271 270 271 273 274 277 277 282 280
284 283 281 280 281 279 278 278 282 282 282 282 281 279 278 278 278 277 277 277 278 278 275 272 269 268 269 271 270 270 270 270 270 270 270 270 270 270 272 274 275 277 279
283 282 281 281 280 279 279 278 277 279 280 280 280 279 279 277 277 277 277 277 277 276 272 270 266 265 267 270 270 269 268 269 270 268 268 268 269 270 270 271 272 272 277
282 282 281 281 281 280 279 278 278 277 276 277 279 279 278 277 277 276 277 277 273 273 272 270 268 268 269 269 268 268 267 266 265 266 266 265 266 268 268 269 270 270 271
280 279 280 279 279 279 279 279 279 278 278 277 277 278 277 277 275 275 275 272 271 270 270 269 269 269 268 267 264 262 259 259 261 261 261 262 265 266 266 268 269 269 269
279 279 280 279 279 278 278 278 278 277 277 276 275 274 273 272 269 268 269 267 268 269 269 269 268 268 265 264 260 257 257 257 260 262 260 262 260 263 265 266 268 267 268
279 279 278 278 277 277 277 276 276 275 275 274 273 272 272 270 269 269 270 268 268 268 267 267 266 262 261 260 263 257 258 257 261 263 263 264 262 263 265 267 267 267 268
277 277 276 276 276 274 274 274 274 273 273 272 271 271 271 269 270 270 269 268 265 267 266 264 262 261 261 261 260 256 260 261 259 262 263 263 264 264 265 265 265 266 267
275 275 274 274 273 273 272 273 272 271 270 270 270 270 270 268 268 268 267 264 266 264 263 262 257 259 259 256 256 260 262 262 263 264 263 263 264 264 264 264 265 265 266
274 273 273 272 271 271 270 269 270 270 270 269 268 268 267 266 264 264 263 263 262 258 256 255 256 258 259 256 256 258 262 264 264 265 265 264 264 264 264 264 265 265 266
271 271 270 270 269 269 269 268 267 267 267 266 265 264 265 264 264 260 260 259 257 254 256 255 253 256 257 257 258 259 260 264 264 263 264 264 263 263 263 264 265 265 266
270 270 269 269 268 267 266 265 264 264 263 263 262 261 260 260 259 255 254 254 253 253 254 253 255 256 257 258 260 263 261 261 262 262 263 263 262 263 264 264 265 266 266

GFSGL_sfc_thetae_069.txt.gz
Theta_e
312 312 312 312 315 316 317 316 316 319 319 319 319 317 316 312 311 308 305 303 302 300 300 300 299 299 299 298 298 298 297 295 292 293 291 290 288 289 290 290 291 290 293
314 314 314 314 315 316 317 318 319 320 320 319 318 315 311 309 307 306 302 302 300 299 299 299 298 299 297 298 298 297 296 296 293 288 289 287 287 288 288 288 292 293 290
316 315 315 315 316 317 319 320 320 319 317 315 314 311 308 307 304 302 302 300 300 299 298 298 298 297 297 298 296 294 293 293 288 285 284 286 286 286 286 287 288 288 290
317 316 316 316 317 319 320 320 320 315 312 309 310 309 306 303 302 301 301 299 298 298 298 298 297 298 296 294 292 287 285 282 282 281 280 281 282 284 283 282 284 285 285
316 317 317 318 319 320 318 315 310 309 308 307 305 303 301 300 300 299 299 298 297 296 297 298 294 292 291 290 284 281 280 279 279 278 277 278 277 278 278 280 282 283 284
318 317 318 314 314 314 311 308 307 306 304 302 302 300 299 299 293 294 296 296 297 297 293 289 288 288 288 287 286 286 283 278 276 276 276 275 275 277 278 279 279 278 277
316 312 311 311 309 307 306 305 303 302 301 300 300 298 297 296 293 293 294 296 293 289 287 286 284 284 283 282 283 282 281 282 280 277 275 276 277 278 279 278 278 279 279
309 309 307 307 306 304 304 302 300 300 298 297 297 297 296 295 292 291 289 287 285 284 283 281 280 280 282 281 279 279 279 279 280 280 278 278 279 282 282 282 282 282 282
307 306 305 305 303 301 300 299 298 299 298 297 297 295 293 292 289 287 286 284 281 280 281 280 280 279 282 282 280 279 279 280 282 282 283 284 284 285 284 282 281 280 278
306 305 304 303 302 300 299 297 297 297 295 293 289 290 289 288 287 286 283 280 278 278 279 279 281 280 281 282 279 278 277 277 277 278 277 279 280 281 282 281 282 279 279
306 305 303 302 301 300 298 296 296 294 289 286 283 284 285 285 285 285 283 279 278 278 278 277 277 280 281 282 280 278 277 277 276 275 275 276 277 277 278 279 280 281 281
302 301 300 299 299 298 294 293 291 288 284 283 281 281 281 282 283 283 282 280 280 278 278 277 278 280 281 280 278 278 277 276 274 272 273 273 273 274 275 276 278 279 281
299 298 298 298 296 294 291 288 286 285 285 282 281 279 278 278 278 282 281 280 279 278 278 278 278 279 279 278 277 277 275 273 272 270 271 272 273 273 275 276 277 278 281
296 295 293 290 288 289 288 287 284 283 282 281 279 277 276 276 275 276 277 278 278 278 277 278 277 278 276 276 275 275 274 273 271 271 270 272 272 272 272 273 274 275 276
291 289 287 286 283 282 282 283 282 282 284 281 280 278 275 275 276 277 277 276 275 277 276 276 275 274 273 273 273 272 272 272 270 270 270 269 270 270 270 271 272 272 273
285 285 284 283 282 281 280 279 283 283 283 283 282 279 279 279 279 278 278 278 278 279 275 272 269 268 270 271 270 270 270 269 269 269 268 268 267 267 268 269 271 271 271
283 283 282 281 280 279 279 278 276 279 281 281 281 280 279 279 278 278 278 278 278 276 272 270 266 266 268 270 269 269 268 269 269 267 266 267 266 266 267 267 268 269 269
283 282 281 281 280 279 279 279 278 277 276 276 279 279 279 278 278 277 277 277 274 273 272 270 268 269 269 268 268 267 267 267 266 265 264 264 261 264 265 264 266 266 268
281 280 280 280 280 280 280 279 279 278 277 277 277 278 278 278 276 276 276 273 272 271 271 270 269 269 268 267 266 265 263 263 262 259 260 259 255 263 263 263 264 265 266
281 280 280 279 279 279 278 278 278 277 277 277 276 275 273 272 270 269 270 269 270 270 269 269 269 268 267 266 264 261 261 260 259 258 258 254 257 258 261 262 263 264 265
278 278 278 278 277 276 276 276 276 275 275 274 273 273 273 271 270 270 271 269 269 269 268 268 267 265 265 264 264 262 259 255 257 259 259 261 258 260 262 263 263 265 265
276 276 275 274 274 273 274 274 273 273 273 272 271 271 272 270 270 271 270 268 267 268 267 265 264 264 264 263 262 256 255 255 255 257 259 261 262 262 262 263 263 262 264
274 274 273 273 272 272 272 272 271 271 270 270 270 270 270 268 268 267 266 265 266 264 263 263 260 261 262 259 256 256 256 260 260 261 261 261 262 262 262 262 262 262 263
272 272 271 270 270 270 270 269 269 269 269 268 268 267 266 265 263 264 263 262 261 259 259 257 258 259 259 255 255 256 259 259 262 262 262 262 261 261 262 262 263 263 263
270 270 269 268 268 267 267 267 266 266 265 264 263 263 265 264 263 259 257 257 256 252 253 253 253 254 255 255 255 256 257 260 259 260 261 261 261 260 261 262 262 263 264
268 267 267 266 265 264 263 261 260 259 259 261 259 257 257 257 254 248 250 251 251 251 253 253 254 255 255 256 257 260 256 257 258 260 260 260 259 260 261 262 262 263 264

GFSGL_sfc_thetae_072.txt.gz
Theta_e
310 310 310 310 311 312 312 313 314 314 314 316 316 316 317 317 315 312 312 308 308 304 303 303 301 301 300 299 299 299 297 297 293 295 295 293 292 291 292 292 293 292 292
311 311 311 311 312 312 313 313 315 315 316 317 318 317 317 315 310 310 306 306 306 303 302 301 300 300 299 299 298 297 297 296 294 292 292 291 290 290 290 289 290 292 292
312 311 312 311 311 311 311 313 315 316 317 318 318 316 315 311 309 308 307 305 304 305 301 300 299 299 297 297 298 296 294 294 291 289 287 287 287 287 286 287 287 288 288
312 311 311 311 312 311 311 313 315 317 317 316 314 313 310 307 306 305 304 303 301 301 300 299 299 298 297 296 293 291 287 285 284 282 281 282 283 284 283 281 281 284 283
311 311 311 311 312 310 312 315 316 317 318 316 312 310 309 306 305 303 302 300 299 298 299 298 296 295 293 293 288 284 284 282 281 279 278 279 277 278 278 280 280 281 282
311 311 312 313 313 313 314 316 318 316 314 310 307 305 302 301 295 296 298 299 298 297 291 289 289 289 287 287 286 285 283 279 278 277 277 277 277 278 279 279 279 278 277
312 312 313 313 313 315 315 312 310 309 306 304 302 301 300 299 294 294 294 298 296 290 287 285 285 286 285 283 283 282 282 283 280 279 277 278 278 279 280 279 280 279 279
313 313 315 314 313 308 306 306 306 304 303 302 300 300 299 295 292 292 291 290 287 286 286 284 283 282 282 281 280 280 280 281 281 281 280 280 280 281 281 282 281 281 282
314 312 312 311 307 305 303 302 301 301 300 298 298 298 295 292 290 288 288 285 283 282 282 282 282 281 283 283 280 279 279 280 281 281 281 281 281 282 282 281 279 278 277
310 309 307 306 304 303 301 299 300 299 296 294 293 294 291 288 288 287 286 283 281 280 281 281 281 280 282 282 280 279 277 277 277 277 277 278 279 280 280 279 279 276 277
307 306 305 304 303 302 299 298 296 293 290 287 286 287 287 287 286 286 285 282 281 279 278 277 279 281 282 282 280 279 277 277 276 276 275 276 277 276 277 277 278 276 275
305 303 303 302 300 298 295 294 291 288 286 285 284 282 282 283 284 284 283 282 281 278 278 277 278 281 282 280 279 278 277 276 275 274 273 273 273 274 275 275 276 277 278
300 299 298 297 295 294 292 289 288 287 285 284 282 280 280 281 281 282 282 281 280 278 279 279 280 281 280 278 278 277 275 274 272 271 271 271 273 274 274 274 275 276 277
297 295 293 292 290 290 290 289 287 285 284 283 281 279 278 278 278 278 278 278 279 278 278 278 278 278 277 276 276 275 274 273 272 271 270 271 272 272 271 272 271 273 273
292 290 288 287 285 283 283 285 285 285 285 283 282 280 277 276 277 277 277 277 277 277 277 276 275 275 274 274 274 273 273 272 271 271 270 269 269 269 269 271 271 271 270
287 286 285 284 283 283 282 281 284 284 284 283 282 280 279 280 279 279 279 279 279 278 275 273 271 271 271 272 271 271 271 270 270 269 269 268 267 267 267 268 269 268 268
285 284 283 283 282 281 281 280 277 280 282 282 282 281 280 280 279 279 278 279 278 277 273 272 269 269 269 271 271 270 269 269 269 268 267 266 266 266 265 266 266 266 266
283 282 282 281 280 279 278 278 278 277 276 276 280 280 280 279 279 278 279 278 275 274 273 270 269 269 270 270 269 268 268 267 267 266 265 265 264 264 264 264 264 264 265
281 280 280 280 280 280 279 279 278 277 276 276 277 278 279 279 278 278 277 274 273 272 272 271 270 270 269 269 268 267 265 265 265 263 263 262 262 262 262 263 263 262 263
280 280 280 279 279 279 279 278 278 278 277 276 276 275 274 273 271 270 271 271 271 271 271 270 270 270 268 267 266 264 264 264 263 263 262 261 259 260 260 261 261 262 263
277 277 277 276 276 276 275 275 275 274 274 272 271 273 273 272 271 270 271 270 270 270 269 269 268 267 266 266 265 264 263 261 261 261 260 261 258 259 261 262 262 263 264
275 274 274 273 274 273 273 273 272 272 271 271 271 271 271 270 270 270 269 267 267 267 267 266 265 265 264 263 263 261 260 258 258 259 258 259 260 262 262 262 262 262 263
273 272 272 272 272 271 270 270 270 269 269 269 269 269 268 266 266 266 265 265 265 263 263 263 260 261 262 261 259 258 257 258 259 260 260 260 261 261 262 261 262 262 263
271 270 270 269 269 268 267 267 267 267 267 266 265 265 263 261 259 258 257 257 258 256 254 254 256 257 258 255 255 256 259 258 260 261 261 260 259 260 260 261 261 262 262
268 268 267 266 265 264 263 263 262 261 261 260 258 257 260 258 260 254 251 252 253 251 253 252 252 254 254 254 255 256 256 259 259 258 259 259 259 259 259 260 260 261 262
266 265 264 263 262 261 259 257 256 255 255 255 253 254 255 256 255 250 250 251 251 252 252 253 253 254 254 255 256 258 256 256 257 258 258 259 258 259 260 260 260 261 262

GFSGL_sfc_thetae_075.txt.gz
Theta_e
316 316 316 316 316 316 315 315 317 319 319 318 318 319 320 321 321 320 320 320 317 316 312 313 309 305 304 304 304 303 303 302 300 301 300 301 301 303 302 302 299 298 297
316 316 316 316 316 315 315 316 318 318 319 319 320 319 319 317 317 317 316 315 313 310 308 308 307 304 304 303 302 302 303 301 298 296 296 301 296 300 298 296 293 291 291
316 315 316 316 316 315 316 317 317 318 318 319 320 319 319 321 319 318 314 311 310 310 309 307 305 303 300 301 301 300 299 298 295 293 291 297 294 296 294 290 289 289 289
316 315 315 315 316 316 317 317 318 318 318 319 319 318 320 320 317 314 312 310 309 308 305 305 303 303 300 301 299 296 293 289 290 287 287 291 292 292 288 286 286 288 287
315 315 314 315 316 316 317 317 317 318 318 319 319 316 316 315 312 310 311 309 306 302 301 301 300 300 297 297 294 293 289 287 286 284 286 287 287 285 285 287 285 286 287
316 315 316 316 316 315 315 316 316 317 318 319 320 317 312 311 300 299 305 304 301 299 294 293 292 293 290 289 288 288 288 285 284 285 285 284 284 285 286 285 284 283 282
315 315 315 316 315 315 315 316 317 318 319 317 317 314 310 308 295 296 297 301 299 295 291 289 287 287 286 286 284 284 283 283 283 286 284 284 283 285 284 284 284 284 284
315 315 315 316 316 316 316 317 318 318 316 311 307 307 304 301 293 294 293 296 291 290 288 288 286 284 284 283 282 281 282 283 284 284 285 284 284 285 284 284 284 284 285
315 315 315 316 316 314 314 312 308 306 305 303 302 300 297 294 291 290 290 289 287 285 285 285 284 283 283 284 282 281 281 282 282 281 280 280 280 281 282 283 282 280 280
316 316 317 317 309 307 305 303 302 302 299 297 295 296 292 290 289 289 288 285 283 282 282 282 283 283 283 282 282 281 280 281 280 280 281 280 280 281 279 281 281 279 279
313 310 309 309 308 306 303 300 298 295 292 289 288 289 289 288 287 287 287 285 282 281 280 280 281 283 283 282 282 282 281 280 278 279 278 279 279 279 279 279 279 279 278
309 307 305 305 303 302 299 295 292 290 287 285 284 283 284 285 286 286 285 284 283 280 279 280 281 283 282 281 281 279 277 278 279 278 277 276 276 276 277 277 278 278 280
303 301 299 298 297 296 293 290 288 288 286 284 283 282 281 282 283 284 283 282 282 280 280 281 282 282 280 279 279 277 277 277 277 276 275 275 275 276 276 277 277 277 278
298 296 295 292 291 291 290 289 287 286 285 284 282 280 280 279 279 280 280 280 280 281 280 281 281 280 279 278 278 277 277 277 275 275 275 275 275 275 275 275 274 275 274
293 291 289 288 286 284 284 286 285 285 286 284 282 281 279 277 278 279 279 279 280 279 279 280 279 278 277 277 276 276 276 276 275 275 274 273 273 273 273 273 273 273 272
289 288 287 286 285 284 283 282 284 283 283 283 282 280 280 280 280 281 280 280 279 278 278 277 276 276 275 275 276 275 275 273 274 273 273 272 271 271 271 271 271 272 270
287 286 285 284 284 283 282 280 278 281 283 283 282 282 281 281 281 281 280 280 279 278 277 276 275 275 274 275 275 274 273 273 272 271 271 270 269 269 269 269 269 270 269
283 282 282 281 280 280 280 280 279 278 277 278 281 281 281 280 280 280 279 279 277 277 276 275 275 275 275 274 274 272 272 271 271 270 270 269 268 268 268 268 268 268 268
282 281 281 281 281 280 280 279 279 279 279 278 279 279 280 280 279 279 278 278 277 276 276 275 275 275 274 273 272 271 270 269 269 268 268 267 267 267 266 267 267 266 266
280 280 280 280 279 280 280 280 280 279 279 278 277 276 277 277 276 275 276 276 276 275 275 274 274 273 272 271 270 269 268 268 267 267 267 267 267 267 266 266 266 266 267
277 277 277 277 278 278 278 277 277 277 276 275 275 275 274 275 274 274 274 274 273 273 272 272 271 270 270 269 268 268 267 267 266 266 266 266 266 265 266 266 266 267 267
276 276 275 275 275 275 275 275 275 274 274 273 273 272 272 273 272 271 270 270 270 270 270 269 268 268 267 267 266 265 264 264 264 264 264 264 264 265 265 265 265 266 266
275 274 273 273 273 272 272 272 272 271 271 271 271 270 270 270 269 269 268 268 268 267 267 266 266 265 266 265 265 264 263 263 264 264 263 263 264 264 265 265 264 265 265
272 271 271 270 270 269 269 269 269 268 268 268 268 268 268 267 266 265 265 265 265 265 264 263 263 262 262 262 263 263 263 263 263 263 263 262 262 263 263 264 264 264 264
269 268 268 267 267 266 266 266 266 266 265 265 265 266 265 265 264 264 263 263 262 262 262 261 261 261 261 259 260 260 260 260 261 261 261 261 261 261 262 263 263 264 264
266 266 265 265 265 264 264 263 263 263 262 263 263 263 263 263 263 262 262 261 260 260 260 261 260 259 259 260 260 260 258 258 258 259 260 261 261 262 263 263 263 264 264

GFSGL_sfc_thetae_078.txt.gz
Theta_e
322 323 322 323 324 324 324 324 324 325 324 323 323 323 322 322 323 324 324 324 323 323 323 322 318 315 313 313 310 310 308 310 307 306 311 309 306 307 304 305 306 305 304
322 323 323 323 322 324 325 325 326 325 325 323 323 321 322 322 323 323 323 322 319 319 319 315 315 311 310 309 308 309 307 307 305 305 304 305 304 304 301 304 302 300 298
322 322 322 322 322 321 321 323 323 322 323 322 323 323 323 323 323 323 322 320 319 319 318 313 311 308 309 307 305 307 305 303 304 306 298 298 296 299 297 299 298 295 293
322 321 321 322 323 322 322 321 322 321 320 320 323 322 323 322 321 322 322 322 322 320 317 311 311 309 308 305 303 304 303 301 297 298 295 294 294 295 293 292 292 293 292
322 321 322 321 322 322 321 321 322 322 320 321 321 322 323 322 321 319 319 319 318 316 312 310 309 307 302 302 302 299 296 295 293 294 291 289 289 289 288 291 289 290 291
321 322 322 322 321 321 321 322 322 322 321 322 321 322 323 320 306 301 312 318 315 311 305 301 301 299 296 294 295 293 294 292 292 292 290 286 288 289 288 289 289 287 287
322 322 322 322 321 321 321 320 320 320 321 320 322 321 321 322 300 298 298 318 312 307 300 294 293 292 292 288 287 285 284 284 285 288 287 288 287 289 288 288 288 288 288
321 321 322 321 321 321 321 320 320 320 320 321 321 321 321 320 297 297 295 307 301 297 294 293 289 287 286 285 284 283 283 283 284 284 286 286 287 288 289 288 288 288 288
320 320 321 321 320 320 319 320 320 320 320 320 319 317 314 304 293 292 295 293 290 288 289 288 287 285 285 286 283 282 282 281 283 282 282 281 281 281 282 286 285 284 283
320 321 321 321 320 320 320 319 316 318 313 303 299 300 296 294 292 292 293 288 285 284 285 284 285 284 284 284 283 282 281 280 281 281 281 281 281 283 280 282 284 282 283
322 322 321 321 319 318 316 311 305 299 295 291 289 290 290 290 289 290 289 287 285 283 282 282 283 283 283 283 284 284 283 283 280 283 283 283 284 283 284 284 283 282 281
318 317 317 317 311 308 303 300 296 293 289 287 286 285 285 286 287 287 286 285 284 282 281 281 283 283 282 282 281 280 279 281 282 282 281 281 281 281 282 282 282 282 282
313 308 305 303 301 300 298 294 291 291 289 286 285 283 282 284 284 285 284 283 282 280 281 282 283 282 281 280 279 278 279 281 281 280 280 280 280 280 280 280 281 281 281
299 296 295 294 293 292 291 291 290 288 286 284 283 281 280 280 280 280 281 281 281 281 282 282 282 281 282 280 278 279 281 281 280 280 279 280 280 279 278 279 278 278 277
294 293 291 289 287 285 284 287 287 287 287 285 283 281 279 277 279 280 280 281 281 281 281 281 280 280 279 280 280 280 280 279 279 279 278 278 277 277 277 278 277 276 275
289 288 287 286 286 284 283 282 284 284 284 284 283 281 280 281 281 282 281 281 281 281 281 280 280 281 280 279 279 279 279 276 278 277 277 276 275 275 275 276 276 275 274
286 286 286 285 283 282 282 281 279 282 283 282 282 282 282 282 282 282 281 280 279 280 280 280 280 280 279 279 279 278 277 277 275 275 274 274 274 273 273 273 274 274 273
284 283 283 283 282 281 281 280 280 279 277 278 281 282 282 282 281 281 281 279 278 279 279 279 278 278 278 277 277 276 275 275 274 274 273 273 272 271 271 271 272 271 272
283 282 282 281 281 281 280 280 279 279 279 278 279 280 281 281 280 280 280 280 279 278 278 277 277 277 276 275 275 274 273 273 272 271 271 271 271 270 270 270 271 269 269
280 280 280 280 280 281 280 280 280 280 280 279 279 278 280 280 278 278 278 278 278 277 276 276 275 275 274 273 273 272 272 272 271 271 270 270 270 270 269 269 269 269 270
279 279 279 280 280 279 279 279 279 278 277 276 275 277 278 278 277 276 275 275 275 274 274 274 273 273 272 272 271 271 270 270 269 269 268 268 268 267 268 268 268 269 269
279 277 277 276 277 277 276 277 277 277 276 274 274 274 275 275 275 274 273 272 272 272 272 271 271 271 270 270 269 269 268 267 267 267 267 266 267 267 267 267 267 268 268
276 275 275 275 275 275 275 275 275 274 274 274 273 273 273 272 272 271 271 271 271 270 270 270 269 268 269 268 268 268 266 266 266 266 265 265 265 266 266 266 266 266 266
274 273 273 272 272 272 272 272 271 271 272 272 272 271 270 270 269 269 269 269 269 269 268 267 267 266 265 265 266 267 266 266 265 265 264 264 264 265 265 265 266 266 266
272 272 271 270 270 270 270 270 270 270 269 269 269 269 269 269 268 268 267 267 266 266 265 265 265 265 264 262 263 263 263 262 262 262 263 263 263 264 264 264 265 265 266
270 269 269 269 269 268 268 268 268 268 267 268 268 267 267 267 267 266 265 265 263 263 264 265 264 263 262 263 263 262 260 259 259 259 261 263 263 264 265 265 265 265 266

GFSGL_sfc_thetae_084.txt.gz
Theta_e
321 320 320 321 322 322 321 320 317 316 316 315 314 315 315 315 316 316 316 316 318 317 318 318 318 319 318 319 319 318 317 314 311 312 310 311 311 308 301 303 303 301 299
323 321 320 321 321 321 321 322 320 317 317 316 316 315 316 316 316 315 315 315 315 316 317 318 318 318 318 319 316 316 315 316 311 308 309 308 306 308 303 301 304 305 302
324 323 322 322 321 321 321 323 322 321 320 319 318 318 317 317 316 316 316 316 316 316 317 317 317 317 316 318 318 315 313 311 311 309 307 303 305 304 302 302 301 298 297
322 323 322 322 323 322 322 322 323 324 322 322 321 320 319 319 318 318 318 318 318 318 318 318 318 317 317 317 315 313 311 309 308 307 306 300 298 298 300 296 294 295 294
321 320 322 323 323 324 324 323 322 323 323 323 321 320 320 319 319 318 318 318 317 318 319 318 317 315 309 313 315 313 310 307 306 304 298 294 292 292 295 294 294 291 291
323 321 321 323 323 323 322 322 322 322 322 322 321 320 319 319 308 303 311 318 317 317 316 316 317 306 306 301 301 301 306 306 304 302 302 298 297 294 291 289 287 285 284
324 324 323 322 322 323 322 321 321 321 322 320 320 320 319 320 304 302 300 317 317 317 316 315 311 306 302 303 292 291 290 289 289 302 299 292 288 288 288 286 285 285 285
324 324 324 324 322 322 322 321 320 320 320 320 320 320 320 320 303 300 298 311 315 315 311 309 309 300 299 294 290 289 288 286 287 288 288 287 287 289 289 287 286 287 288
323 323 324 324 323 322 321 320 321 320 320 319 319 318 318 318 300 298 298 309 312 299 294 294 296 292 291 292 288 285 284 283 286 286 286 286 285 285 285 286 283 283 282
319 323 324 324 323 322 322 321 321 321 320 320 317 308 297 311 293 293 298 299 290 287 286 286 287 287 287 288 287 285 281 280 281 281 281 282 283 283 282 283 282 282 282
319 319 320 324 323 323 322 322 321 320 310 298 291 291 294 295 294 292 292 290 287 285 284 284 284 285 286 286 285 283 281 281 281 281 282 282 282 282 283 282 282 282 281
311 308 306 307 311 316 317 306 304 299 293 289 287 285 286 287 288 289 288 287 287 284 283 283 284 284 284 284 283 283 282 282 282 281 281 281 281 281 282 282 282 282 282
297 296 295 296 296 297 302 300 296 294 290 287 285 283 283 284 285 286 286 285 284 282 282 283 283 283 282 281 282 282 282 281 281 280 280 280 280 280 280 281 281 281 281
291 289 288 287 287 287 289 289 289 289 287 286 284 282 281 281 282 283 283 283 283 282 281 280 280 279 279 280 280 281 280 279 279 279 279 279 280 280 279 280 279 279 278
288 287 286 285 284 282 282 283 284 285 287 285 283 282 279 278 280 282 282 281 280 280 280 279 278 278 278 279 280 279 279 279 278 278 278 278 278 278 277 277 276 275 273
286 285 284 284 283 282 281 280 284 283 283 283 283 282 282 283 284 284 283 283 283 282 280 279 279 280 279 279 278 278 277 277 277 276 276 276 275 274 274 275 275 273 273
284 284 283 283 282 282 281 280 278 281 283 283 283 283 283 283 283 283 284 284 284 283 280 279 278 277 277 278 277 276 274 275 276 275 274 273 273 273 272 271 271 271 271
282 281 281 281 280 280 279 279 279 278 277 278 281 282 282 282 283 283 283 281 279 279 278 277 276 276 276 275 275 274 274 273 272 271 270 268 267 269 269 269 269 268 268
281 281 281 280 280 280 279 279 278 278 277 277 278 279 280 281 281 281 280 278 276 276 276 275 275 274 274 274 273 272 272 270 268 267 269 269 266 267 265 267 267 265 266
280 281 281 281 281 280 279 278 277 277 277 277 277 277 276 275 273 273 274 274 274 274 274 273 273 273 272 272 271 270 268 267 267 267 264 262 263 264 262 262 262 263 266
279 279 279 279 278 277 276 275 275 274 273 273 274 275 275 273 272 271 271 271 271 271 271 272 271 271 270 269 269 267 266 263 264 263 263 263 258 259 263 262 262 264 266
277 276 276 275 276 276 275 275 275 274 273 272 272 273 273 272 271 270 270 270 269 269 270 269 268 268 267 267 266 263 263 261 261 261 260 260 261 261 261 261 261 261 263
276 275 275 274 274 273 273 273 273 272 271 271 271 270 270 270 269 269 269 269 269 268 268 267 266 266 265 263 264 265 263 263 263 260 257 257 259 260 258 259 261 262 262
275 274 273 272 272 272 272 271 271 271 271 270 270 269 269 269 268 267 266 266 266 266 265 264 265 263 263 261 261 261 264 261 260 260 257 256 258 260 259 261 261 260 262
272 272 271 271 270 270 269 269 269 269 269 269 268 268 268 267 267 266 265 264 263 263 263 264 263 262 261 259 260 260 258 256 254 255 255 257 257 256 259 261 262 263 262
270 270 269 269 269 268 268 267 267 267 267 267 267 266 266 265 265 264 263 260 258 261 261 261 263 260 260 261 260 257 255 255 254 256 255 258 257 259 261 261 259 261 262

GFSGL_sfc_thetae_087.txt.gz
Theta_e
317 320 320 320 317 315 314 313 313 312 312 312 312 314 315 315 316 315 315 316 316 316 316 316 315 315 315 316 317 317 316 315 311 312 309 309 310 309 309 307 307 305 302
317 318 319 320 320 318 317 315 315 313 313 312 312 313 314 315 315 314 314 314 314 315 316 316 316 316 315 315 315 315 315 316 313 310 311 307 309 310 309 304 305 306 302
318 317 317 318 319 320 318 319 318 315 313 313 312 312 312 312 313 313 313 313 313 313 314 314 315 315 314 316 315 315 315 315 314 313 311 308 309 306 302 301 302 302 301
319 317 316 316 317 318 320 320 320 319 316 313 313 313 312 312 312 313 313 313 313 313 313 313 315 315 315 315 315 315 315 314 312 311 310 309 302 302 304 302 298 297 298
317 319 317 318 318 318 318 319 320 320 319 316 314 313 313 312 312 312 313 313 313 312 313 314 314 314 309 311 315 315 315 313 311 309 308 304 299 294 299 301 300 298 293
317 317 319 320 319 319 319 319 319 319 320 319 317 316 314 314 306 302 309 314 313 313 313 314 315 306 306 301 302 304 311 313 310 308 307 304 301 302 304 299 296 287 288
319 318 318 319 320 320 320 320 319 318 319 320 319 319 318 318 303 301 300 315 315 315 314 314 314 314 305 310 298 296 292 291 289 306 306 306 303 297 290 287 286 286 285
320 320 319 318 319 320 320 319 319 319 319 318 318 319 319 319 302 300 297 311 315 315 314 314 313 310 305 305 298 291 286 286 287 288 288 287 288 289 289 288 287 286 286
314 315 317 320 319 318 318 319 319 318 318 318 319 319 318 318 301 300 299 310 312 313 301 296 305 303 294 296 291 286 284 283 287 288 287 287 287 288 288 287 284 284 282
309 309 308 306 317 320 319 318 319 319 318 318 318 318 311 318 299 298 299 312 308 290 287 287 288 290 289 289 288 285 282 281 282 282 281 283 284 284 284 285 284 282 282
303 301 300 299 302 305 312 318 317 317 316 310 298 291 291 290 292 293 294 298 298 287 285 284 286 287 287 287 286 284 282 281 281 281 281 282 282 283 282 282 283 282 281
296 294 293 292 292 296 297 300 301 303 298 290 288 286 285 286 287 288 288 288 288 286 284 284 285 285 285 284 283 283 283 282 282 281 281 281 280 280 280 281 282 281 282
292 290 288 287 286 287 288 289 292 294 293 291 290 286 284 285 285 286 286 285 284 283 284 284 284 284 283 283 283 283 282 281 281 280 278 278 279 280 281 281 281 281 281
288 287 286 284 283 283 284 285 283 285 288 287 284 282 281 282 282 282 282 282 282 280 278 279 280 281 280 280 280 280 280 280 279 278 278 279 280 279 278 279 277 277 277
286 286 284 283 283 282 282 282 282 283 284 283 281 282 280 280 281 282 281 280 279 279 279 279 279 279 278 278 278 279 278 278 277 277 276 276 276 276 275 276 275 275 273
284 283 283 282 282 282 281 281 284 283 284 284 284 283 282 283 284 284 284 283 283 282 280 279 279 278 277 277 276 275 275 276 276 275 274 274 273 273 273 273 273 272 271
282 282 281 281 281 280 280 279 277 280 283 283 284 284 284 284 284 284 283 283 282 281 278 277 276 276 276 275 275 274 273 273 274 273 272 272 272 271 271 270 270 269 269
281 280 280 280 279 279 279 278 278 277 276 277 281 282 283 282 282 282 281 280 277 277 276 275 274 274 274 273 273 273 272 272 272 271 269 268 268 268 267 267 267 266 266
281 280 280 280 279 279 278 278 278 277 277 276 276 276 277 279 279 279 278 275 273 273 273 273 273 273 272 272 271 270 269 268 268 267 266 266 264 266 264 265 265 263 263
279 279 278 277 277 276 276 275 274 274 274 273 273 273 273 273 271 271 272 272 272 271 271 271 271 270 270 269 268 268 267 266 266 266 263 261 260 262 261 261 262 261 264
276 276 276 276 275 275 274 273 273 273 272 272 271 272 272 270 269 269 268 268 268 269 269 268 268 267 267 266 266 265 264 263 264 263 263 262 256 258 261 260 259 261 263
275 274 274 274 274 273 272 272 272 271 270 270 270 270 270 269 269 268 267 266 266 267 267 266 265 265 265 264 264 262 262 260 259 257 257 257 258 258 258 257 256 255 259
273 273 273 273 272 272 271 271 270 270 269 269 268 267 267 266 265 265 265 265 264 263 265 264 262 262 262 261 261 262 260 258 256 254 253 253 256 255 252 254 255 256 257
272 271 271 270 270 269 268 268 268 267 267 266 265 266 265 264 263 261 261 261 262 260 261 261 261 261 261 258 257 259 258 254 255 253 250 250 253 257 254 256 257 256 260
270 269 269 268 268 267 266 266 265 265 264 264 264 264 263 263 261 259 256 258 260 261 262 260 258 256 255 257 256 255 253 254 251 252 251 252 251 250 253 257 259 258 255
268 267 266 266 265 264 263 263 262 261 259 261 262 256 257 261 259 253 254 256 258 258 256 256 256 256 256 256 256 255 253 255 253 255 252 254 254 254 253 253 255 256 259

GFSGL_sfc_thetae_090.txt.gz
Theta_e
318 317 317 317 315 314 311 309 309 309 310 311 313 314 316 315 315 315 315 315 314 314 314 314 315 315 315 315 316 315 314 313 310 312 314 315 310 312 314 310 313 312 311
317 318 318 318 316 314 312 311 311 309 310 311 311 312 313 314 316 314 313 314 313 313 313 313 314 315 313 314 314 314 314 315 313 309 312 312 309 310 311 308 307 308 308
316 317 317 318 317 315 314 313 312 311 310 310 311 310 311 312 313 313 314 313 313 315 315 314 314 314 313 314 313 313 313 313 313 312 311 314 312 306 306 306 304 305 306
316 315 316 316 317 318 317 316 314 313 311 311 311 311 311 311 312 312 312 312 312 312 313 314 315 314 314 313 312 312 313 312 312 312 312 312 310 306 305 304 299 302 303
316 316 315 316 317 317 318 318 317 315 313 313 311 311 311 311 311 311 312 311 311 311 312 312 312 311 307 310 313 312 313 311 312 311 311 311 307 296 302 304 305 305 295
316 316 317 316 316 316 316 318 318 317 317 315 313 311 310 311 303 300 306 310 310 310 309 310 311 304 304 300 301 302 309 312 311 311 311 309 309 308 307 304 302 291 292
317 317 318 318 317 316 317 317 317 317 318 317 315 313 312 312 301 299 298 309 309 309 310 310 310 311 304 310 301 297 293 290 291 310 312 311 310 309 306 293 289 289 287
311 314 315 317 318 319 317 317 317 317 316 317 317 317 316 315 301 299 296 307 309 309 310 311 311 310 310 309 309 299 292 289 289 291 294 294 290 291 293 292 289 286 286
304 304 305 306 309 314 318 318 318 318 317 317 317 317 318 318 301 300 299 308 310 311 312 313 313 311 305 299 300 291 285 284 288 288 288 288 288 288 290 289 285 286 283
299 299 299 299 302 303 305 311 319 319 318 318 318 318 312 318 304 299 300 314 311 310 311 295 290 301 298 293 304 292 286 283 283 283 283 283 284 284 284 285 285 283 282
296 295 294 293 295 296 298 299 300 305 317 316 311 293 290 288 291 291 296 308 310 306 298 285 286 288 288 289 290 290 287 283 282 282 281 282 282 282 282 282 282 282 281
292 290 289 288 289 290 292 292 293 295 295 293 289 287 286 286 287 287 288 290 293 288 284 284 284 285 285 285 284 284 283 283 282 281 280 279 279 279 280 281 281 281 281
289 286 285 284 284 285 285 286 289 291 289 286 285 283 282 283 284 285 285 285 285 284 285 284 284 284 283 282 283 283 282 282 280 278 277 278 279 280 281 280 281 281 281
287 284 283 283 282 283 283 283 283 285 285 285 285 283 282 281 280 281 281 281 282 281 280 280 280 280 280 280 280 280 280 279 278 277 277 278 278 276 276 277 276 276 276
285 284 283 282 282 281 282 282 282 283 283 282 282 282 280 279 280 281 281 280 280 280 280 280 279 278 277 277 277 277 277 277 276 276 275 275 275 274 274 275 274 274 272
282 282 282 281 281 280 280 280 284 284 284 284 284 282 282 283 284 284 284 283 283 282 279 277 276 276 274 274 274 274 275 274 274 274 273 273 272 272 272 272 272 270 269
281 281 281 281 280 280 279 278 277 279 281 283 283 284 284 283 283 283 282 282 281 279 276 275 274 274 274 274 273 272 271 273 273 272 271 271 270 270 269 268 268 267 267
280 280 279 279 279 278 278 277 275 274 272 273 278 279 280 280 280 280 279 278 274 275 274 273 272 272 273 272 272 271 271 271 270 269 268 267 268 268 267 266 266 265 265
278 278 278 278 277 277 276 276 275 273 272 272 273 274 274 277 276 276 276 272 271 271 271 271 271 270 270 270 269 268 268 267 266 265 265 264 261 264 263 264 264 264 264
276 276 276 275 275 274 274 273 272 271 270 270 269 270 271 271 268 268 269 270 269 269 269 269 268 268 268 268 267 266 266 265 265 263 258 258 258 262 261 261 261 260 262
274 274 274 274 273 273 272 271 271 270 269 269 269 270 269 268 267 266 266 266 266 266 266 265 265 265 265 264 264 262 261 259 261 260 258 258 252 256 259 260 259 260 262
273 273 273 272 272 271 271 271 270 269 269 268 267 267 267 266 265 264 264 263 264 264 264 262 262 262 262 261 261 258 256 254 253 253 255 255 256 256 256 256 255 253 257
272 271 271 271 271 270 270 269 268 268 266 266 265 264 263 262 262 262 261 259 261 261 262 261 259 259 259 257 258 257 256 253 252 250 249 249 253 253 250 252 254 253 254
270 270 269 268 268 268 267 266 266 266 265 264 264 263 261 260 258 257 257 257 258 258 257 257 259 259 259 255 255 256 257 251 253 252 248 249 252 254 251 253 254 253 253
267 267 266 265 265 264 264 264 262 262 262 262 261 262 260 257 256 253 254 257 258 257 256 254 253 254 254 253 254 254 253 253 250 251 249 250 249 249 251 253 252 254 252
266 265 265 264 263 262 262 260 259 260 259 259 257 255 254 253 252 249 251 253 253 254 254 254 254 253 253 254 254 253 252 253 250 251 248 252 250 250 250 250 252 252 256